THY2GF LTFM-MMUN

Flight info

Callsign THY2GF
Flight time 13h 3m
Altitude 34000
Route TUDBU Q26 ETUBA DCT DEGET DCT PATAK DCT ODNEM DCT ELMEK DCT VEXIL DCT KATCE DCT MIMVA DCT OTBED L60 PENIL M144 BAGSO DCT LIMRI/M083F360 DCT 53N020W 53N030W 53N040W 52N050W DCT TUDEP/N0483F380 N526A TOPPS DCT ENE DCT MERIT/N0469F400 DCT RIDGY DCT COLIN DCT ARGAL DCT FLO DCT ESENT DCT JAYJA DCT KNOST DCT CIGAR M219 NAVVL L465 SHARQ UM463 WALKY UB879 NOSAT NOSAT1B
Aircraft B772/H-SDE2E3FGHIJ5LORVWXY/LB1D1

Departure

Time 2026-05-04 22:53
Airport İstanbul Airport (LTFM)

Arrival

Time 2026-05-05 11:56
Airport Cancún International Airport (MMUN)
Time Latitude Longitude Altitude Speed Heading
2026-05-04 22:38 41.26066 28.73617 304 ft 0 kts 106°
2026-05-04 22:44 41.26067 28.73614 304 ft 2 kts 106°
2026-05-04 22:45 41.26071 28.73595 304 ft 2 kts 106°
2026-05-04 22:45 41.26080 28.73556 304 ft 2 kts 106°
2026-05-04 22:45 41.26084 28.73537 304 ft 1 kts 106°
2026-05-04 22:46 41.26086 28.73524 304 ft 2 kts 96°
2026-05-04 22:46 41.26084 28.73505 304 ft 2 kts 54°
2026-05-04 22:46 41.26073 28.73492 304 ft 1 kts 20°
2026-05-04 22:46 41.26067 28.73490 304 ft 0 kts 15°
2026-05-04 22:48 41.26074 28.73492 304 ft 3 kts 15°
2026-05-04 22:48 41.26105 28.73503 304 ft 4 kts 16°
2026-05-04 22:49 41.26139 28.73516 304 ft 5 kts 16°
2026-05-04 22:49 41.26178 28.73526 304 ft 6 kts 357°
2026-05-04 22:49 41.26208 28.73486 306 ft 4 kts 281°
2026-05-04 22:49 41.26211 28.73452 310 ft 5 kts 272°
2026-05-04 22:50 41.26211 28.73378 316 ft 10 kts 269°
2026-05-04 22:50 41.26210 28.73263 323 ft 13 kts 269°
2026-05-04 22:50 41.26209 28.73147 324 ft 11 kts 269°
2026-05-04 22:50 41.26207 28.73030 324 ft 14 kts 268°
2026-05-04 22:51 41.26205 28.72888 324 ft 15 kts 269°
2026-05-04 22:51 41.26203 28.72728 324 ft 17 kts 269°
2026-05-04 22:51 41.26202 28.72578 324 ft 12 kts 269°
2026-05-04 22:51 41.26230 28.72533 323 ft 6 kts 347°
2026-05-04 22:52 41.26256 28.72528 322 ft 0 kts 359°
2026-05-04 22:52 41.26259 28.72528 322 ft 3 kts 359°
2026-05-04 22:52 41.26469 28.72518 318 ft 63 kts 357°
2026-05-04 22:52 41.27116 28.72509 302 ft 120 kts 359°
2026-05-04 22:53 41.28126 28.72498 323 ft 161 kts 358°
2026-05-04 22:53 41.29251 28.72487 799 ft 166 kts 356°
2026-05-04 22:53 41.30355 28.72422 1531 ft 158 kts 356°
2026-05-04 22:53 41.31480 28.72445 1787 ft 169 kts
2026-05-04 22:54 41.32705 28.72479 1951 ft 184 kts 359°
2026-05-04 22:54 41.34040 28.72493 2233 ft 200 kts 359°
2026-05-04 22:54 41.35472 28.72507 2587 ft 213 kts
2026-05-04 22:54 41.37005 28.72522 2947 ft 225 kts
2026-05-04 22:55 41.38553 28.72252 3453 ft 231 kts 343°
2026-05-04 22:55 41.40034 28.71396 3943 ft 238 kts 339°
2026-05-04 22:55 41.41527 28.70444 4483 ft 241 kts 339°
2026-05-04 22:55 41.43041 28.69477 5031 ft 243 kts 339°
2026-05-04 22:56 41.44566 28.68503 5597 ft 244 kts 339°
2026-05-04 22:56 41.46092 28.67527 6152 ft 246 kts 339°
2026-05-04 22:56 41.47652 28.66529 6712 ft 247 kts 340°
2026-05-04 22:56 41.49218 28.65526 7264 ft 249 kts 340°
2026-05-04 22:57 41.50790 28.64519 7789 ft 251 kts 340°
2026-05-04 22:57 41.52363 28.63510 8307 ft 254 kts 340°
2026-05-04 22:57 41.53937 28.62500 8857 ft 254 kts 340°
2026-05-04 22:57 41.55530 28.61477 9382 ft 256 kts 340°
2026-05-04 22:58 41.57130 28.60391 9900 ft 261 kts 333°
2026-05-04 22:58 41.58528 28.58741 10295 ft 275 kts 321°
2026-05-04 22:58 41.59871 28.56801 10431 ft 292 kts 319°
2026-05-04 22:58 41.61167 28.54889 10539 ft 306 kts 319°
2026-05-04 22:59 41.62646 28.52715 10640 ft 321 kts 319°
2026-05-04 22:59 41.64192 28.50446 10725 ft 335 kts 318°
2026-05-04 22:59 41.65786 28.48104 10796 ft 349 kts 317°
2026-05-04 22:59 41.67252 28.45444 11003 ft 363 kts 306°
2026-05-04 23:00 41.68388 28.42365 11388 ft 370 kts 300°
2026-05-04 23:00 41.69426 28.39202 11798 ft 372 kts 299°
2026-05-04 23:00 41.70462 28.36023 12174 ft 375 kts 299°
2026-05-04 23:00 41.71506 28.32822 12495 ft 379 kts 298°
2026-05-04 23:01 41.72567 28.29567 12897 ft 381 kts 298°
2026-05-04 23:01 41.73630 28.26301 13318 ft 383 kts 298°
2026-05-04 23:01 41.74699 28.23016 13727 ft 385 kts 298°
2026-05-04 23:01 41.75767 28.19730 14097 ft 388 kts 298°
2026-05-04 23:02 41.76849 28.16400 14404 ft 393 kts 298°
2026-05-04 23:02 41.77948 28.13012 14778 ft 396 kts 298°
2026-05-04 23:02 41.79065 28.09663 15165 ft 396 kts 302°
2026-05-04 23:02 41.80513 28.06545 15540 ft 393 kts 311°
2026-05-04 23:03 41.82049 28.03788 15899 ft 394 kts 312°
2026-05-04 23:03 41.83688 28.00877 16266 ft 396 kts 312°
2026-05-04 23:03 41.85369 27.97888 16579 ft 401 kts 311°
2026-05-04 23:03 41.87029 27.94933 16940 ft 403 kts 311°
2026-05-04 23:04 41.88719 27.91918 17338 ft 405 kts 311°
2026-05-04 23:04 41.90414 27.88890 17718 ft 407 kts 311°
2026-05-04 23:04 41.92119 27.85843 18089 ft 409 kts 311°
2026-05-04 23:04 41.93827 27.82785 18458 ft 411 kts 311°
2026-05-04 23:05 41.95546 27.79707 18836 ft 413 kts 311°
2026-05-04 23:05 41.97354 27.76765 19199 ft 411 kts 318°
2026-05-04 23:05 41.99349 27.74009 19560 ft 412 kts 319°
2026-05-04 23:05 42.01380 27.71239 19894 ft 415 kts 319°
2026-05-04 23:06 42.03389 27.68496 20246 ft 417 kts 319°
2026-05-04 23:06 42.05441 27.65690 20613 ft 419 kts 319°
2026-05-04 23:06 42.07465 27.62917 20966 ft 420 kts 319°
2026-05-04 23:06 42.09510 27.60113 21296 ft 423 kts 319°
2026-05-04 23:07 42.11585 27.57264 21656 ft 424 kts 319°
2026-05-04 23:07 42.13634 27.54448 22045 ft 425 kts 319°
2026-05-04 23:07 42.15730 27.51564 22416 ft 427 kts 319°
2026-05-04 23:07 42.17786 27.48732 22749 ft 429 kts 319°
2026-05-04 23:08 42.19879 27.45845 23088 ft 431 kts 319°
2026-05-04 23:08 42.21915 27.43036 23420 ft 432 kts 319°
2026-05-04 23:08 42.23913 27.40275 23741 ft 434 kts 319°
2026-05-04 23:08 42.26034 27.37342 24081 ft 436 kts 318°
2026-05-04 23:09 42.28147 27.34416 24402 ft 437 kts 317°
2026-05-04 23:09 42.30277 27.31465 24709 ft 439 kts 317°
2026-05-04 23:09 42.32417 27.28495 25023 ft 441 kts 317°
2026-05-04 23:09 42.34549 27.25534 25339 ft 443 kts 317°
2026-05-04 23:10 42.36710 27.22530 25645 ft 444 kts 317°
2026-05-04 23:10 42.38837 27.19568 25894 ft 447 kts 317°
2026-05-04 23:10 42.41017 27.16532 26162 ft 449 kts 316°
2026-05-04 23:10 42.43178 27.13518 26441 ft 451 kts 316°
2026-05-04 23:11 42.45396 27.10421 26730 ft 453 kts 316°
2026-05-04 23:11 42.47587 27.07358 27018 ft 454 kts 316°
2026-05-04 23:11 42.49777 27.04294 27337 ft 455 kts 316°
2026-05-04 23:11 42.51985 27.01200 27648 ft 455 kts 316°
2026-05-04 23:12 42.54183 26.98118 27896 ft 457 kts 316°
2026-05-04 23:12 42.56240 26.95231 28112 ft 459 kts 316°
2026-05-04 23:12 42.58487 26.92073 28364 ft 461 kts 316°
2026-05-04 23:12 42.60690 26.88975 28613 ft 462 kts 316°
2026-05-04 23:13 42.62926 26.85826 28855 ft 464 kts 316°
2026-05-04 23:13 42.65182 26.82645 29093 ft 465 kts 316°
2026-05-04 23:13 42.67408 26.79503 29327 ft 467 kts 316°
2026-05-04 23:13 42.69666 26.76313 29619 ft 467 kts 316°
2026-05-04 23:14 42.71912 26.73135 29965 ft 466 kts 316°
2026-05-04 23:14 42.74139 26.69982 30205 ft 467 kts 316°
2026-05-04 23:14 42.76408 26.66765 30444 ft 468 kts 315°
2026-05-04 23:14 42.78645 26.63591 30820 ft 465 kts 315°
2026-05-04 23:15 42.80874 26.60423 31330 ft 460 kts 315°
2026-05-04 23:15 42.83071 26.57370 31706 ft 457 kts 317°
2026-05-04 23:15 42.85375 26.54345 31976 ft 457 kts 317°
2026-05-04 23:15 42.87656 26.51356 32220 ft 458 kts 317°
2026-05-04 23:16 42.89953 26.48338 32501 ft 458 kts 317°
2026-05-04 23:16 42.92225 26.45345 32813 ft 457 kts 317°
2026-05-04 23:16 42.94492 26.42353 33134 ft 455 kts 317°
2026-05-04 23:16 42.96782 26.39323 33430 ft 455 kts 317°
2026-05-04 23:17 42.99046 26.36324 33709 ft 454 kts 317°
2026-05-04 23:17 43.01303 26.33329 33989 ft 454 kts 316°
2026-05-04 23:17 43.03556 26.30335 34099 ft 455 kts 316°
2026-05-04 23:17 43.05811 26.27334 34105 ft 454 kts 316°
2026-05-04 23:18 43.10328 26.21312 34108 ft 455 kts 316°
2026-05-04 23:18 43.14848 26.15272 34111 ft 457 kts 316°
2026-05-04 23:19 43.19368 26.09219 34111 ft 456 kts 316°
2026-05-04 23:19 43.23744 26.03345 34110 ft 457 kts 316°
2026-05-04 23:20 43.28260 25.97269 34110 ft 456 kts 316°
2026-05-04 23:20 43.32637 25.91368 34110 ft 456 kts 316°
2026-05-04 23:21 43.37142 25.85282 34110 ft 456 kts 316°
2026-05-04 23:21 43.41640 25.79192 34109 ft 456 kts 316°
2026-05-04 23:22 43.46162 25.73055 34108 ft 456 kts 316°
2026-05-04 23:22 43.50523 25.67124 34108 ft 456 kts 316°
2026-05-04 23:23 43.54862 25.61210 34108 ft 456 kts 316°
2026-05-04 23:23 43.59348 25.55082 34108 ft 456 kts 316°
2026-05-04 23:24 43.63847 25.48923 34108 ft 456 kts 316°
2026-05-04 23:24 43.68336 25.42764 34107 ft 456 kts 316°
2026-05-04 23:25 43.72814 25.36606 34107 ft 456 kts 316°
2026-05-04 23:25 43.77305 25.30417 34128 ft 457 kts 315°
2026-05-04 23:26 43.81799 25.24210 34151 ft 459 kts 315°
2026-05-04 23:26 43.86300 25.17978 34149 ft 455 kts 315°
2026-05-04 23:27 43.90779 25.11764 34150 ft 455 kts 315°
2026-05-04 23:27 43.95250 25.05546 34149 ft 455 kts 315°
2026-05-04 23:28 43.99745 24.99281 34149 ft 455 kts 315°
2026-05-04 23:28 44.04197 24.93062 34149 ft 455 kts 315°
2026-05-04 23:29 44.08641 24.86840 34149 ft 455 kts 315°
2026-05-04 23:29 44.13113 24.80563 34152 ft 455 kts 315°
2026-05-04 23:30 44.17550 24.74323 34126 ft 455 kts 315°
2026-05-04 23:30 44.22019 24.68023 34108 ft 451 kts 314°
2026-05-04 23:31 44.26448 24.61765 34109 ft 452 kts 314°
2026-05-04 23:31 44.30857 24.55521 34108 ft 450 kts 314°
2026-05-04 23:32 44.35244 24.49294 34108 ft 450 kts 314°
2026-05-04 23:32 44.39626 24.43059 34107 ft 450 kts 314°
2026-05-04 23:33 44.44026 24.36786 34107 ft 450 kts 314°
2026-05-04 23:33 44.48390 24.30549 34110 ft 450 kts 314°
2026-05-04 23:34 44.52780 24.24261 34110 ft 450 kts 314°
2026-05-04 23:34 44.57164 24.17966 34111 ft 454 kts 314°
2026-05-04 23:35 44.61575 24.11620 34109 ft 453 kts 314°
2026-05-04 23:35 44.65979 24.05268 34109 ft 453 kts 314°
2026-05-04 23:36 44.70353 23.98945 34108 ft 453 kts 314°
2026-05-04 23:36 44.74597 23.92795 34108 ft 453 kts 314°
2026-05-04 23:37 44.79007 23.86390 34110 ft 458 kts 315°
2026-05-04 23:37 44.83273 23.80180 34107 ft 460 kts 315°
2026-05-04 23:38 44.87722 23.73690 34109 ft 461 kts 315°
2026-05-04 23:38 44.92149 23.67215 34106 ft 457 kts 315°
2026-05-04 23:39 44.96564 23.60742 34106 ft 458 kts 315°
2026-05-04 23:39 45.00972 23.54266 34106 ft 458 kts 315°
2026-05-04 23:40 45.05372 23.47785 34106 ft 458 kts 315°
2026-05-04 23:40 45.09787 23.41266 34146 ft 458 kts 315°
2026-05-04 23:41 45.14037 23.34977 34153 ft 458 kts 315°
2026-05-04 23:41 45.18420 23.28475 34153 ft 458 kts 315°
2026-05-04 23:42 45.22802 23.21960 34153 ft 457 kts 315°
2026-05-04 23:42 45.27190 23.15420 34153 ft 458 kts 315°
2026-05-04 23:43 45.31579 23.08863 34152 ft 459 kts 315°
2026-05-04 23:43 45.35947 23.02321 34152 ft 459 kts 315°
2026-05-04 23:44 45.40328 22.95744 34152 ft 459 kts 315°
2026-05-04 23:44 45.44723 22.89131 34151 ft 459 kts 315°
2026-05-04 23:45 45.49065 22.82581 34151 ft 459 kts 315°
2026-05-04 23:45 45.53441 22.75964 34151 ft 459 kts 315°
2026-05-04 23:46 45.57808 22.69343 34129 ft 456 kts 315°
2026-05-04 23:46 45.62121 22.62791 34130 ft 457 kts 315°
2026-05-04 23:47 45.66447 22.56201 34129 ft 456 kts 315°
2026-05-04 23:47 45.70786 22.49577 34129 ft 456 kts 315°
2026-05-04 23:48 45.75122 22.42940 34128 ft 456 kts 315°
2026-05-04 23:48 45.79423 22.36341 34128 ft 456 kts 315°
2026-05-04 23:49 45.83750 22.29686 34128 ft 457 kts 315°
2026-05-04 23:49 45.88065 22.23033 34128 ft 456 kts 315°
2026-05-04 23:50 45.92397 22.16337 34127 ft 455 kts 315°
2026-05-04 23:50 45.96687 22.09691 34127 ft 455 kts 315°
2026-05-04 23:51 46.01021 22.02959 34126 ft 455 kts 315°
2026-05-04 23:51 46.05327 21.96254 34126 ft 455 kts 315°
2026-05-04 23:52 46.09663 21.89485 34126 ft 455 kts 315°
2026-05-04 23:52 46.13963 21.82757 34133 ft 455 kts 315°
2026-05-04 23:53 46.18258 21.76020 34132 ft 455 kts 315°
2026-05-04 23:53 46.22572 21.69236 34132 ft 455 kts 315°
2026-05-04 23:54 46.26844 21.62501 34132 ft 455 kts 315°
2026-05-04 23:54 46.31099 21.55777 34131 ft 455 kts 315°
2026-05-04 23:55 46.35316 21.49094 34131 ft 455 kts 315°
2026-05-04 23:56 46.41714 21.38927 34131 ft 455 kts 315°
2026-05-04 23:56 46.45978 21.32128 34131 ft 455 kts 314°
2026-05-04 23:57 46.50218 21.25373 34126 ft 455 kts 316°
2026-05-04 23:57 46.54927 21.19235 34131 ft 456 kts 320°
2026-05-04 23:58 46.59651 21.13191 34129 ft 455 kts 320°
2026-05-04 23:58 46.64359 21.07099 34129 ft 455 kts 320°
2026-05-04 23:59 46.69058 21.00972 34129 ft 455 kts 319°
2026-05-04 23:59 46.73771 20.94797 34129 ft 455 kts 319°
2026-05-05 00:00 46.78473 20.88613 34109 ft 457 kts 319°
2026-05-05 00:00 46.83174 20.82409 34105 ft 457 kts 319°
2026-05-05 00:01 46.87932 20.76113 34107 ft 461 kts 319°
2026-05-05 00:01 46.92676 20.69819 34108 ft 461 kts 318°
2026-05-05 00:02 46.97405 20.63529 34107 ft 461 kts 318°
2026-05-05 00:02 47.02153 20.57197 34107 ft 461 kts 318°
2026-05-05 00:03 47.06910 20.50836 34107 ft 461 kts 318°
2026-05-05 00:03 47.11631 20.44510 34110 ft 461 kts 318°
2026-05-05 00:04 47.16377 20.38132 34110 ft 461 kts 318°
2026-05-05 00:04 47.21151 20.31701 34111 ft 462 kts 317°
2026-05-05 00:05 47.25867 20.25332 34111 ft 461 kts 317°
2026-05-05 00:05 47.30571 20.18962 34110 ft 460 kts 317°
2026-05-05 00:06 47.35289 20.12557 34110 ft 460 kts 317°
2026-05-05 00:06 47.39975 20.06181 34110 ft 460 kts 317°
2026-05-05 00:07 47.44673 19.99771 34109 ft 460 kts 317°
2026-05-05 00:07 47.49359 19.93362 34109 ft 460 kts 317°
2026-05-05 00:08 47.54068 19.86903 34109 ft 460 kts 317°
2026-05-05 00:08 47.58768 19.80442 34109 ft 460 kts 317°
2026-05-05 00:09 47.63439 19.74004 34108 ft 460 kts 317°
2026-05-05 00:09 47.68143 19.67504 34108 ft 460 kts 317°
2026-05-05 00:10 47.72850 19.60981 34108 ft 460 kts 317°
2026-05-05 00:10 47.77519 19.54496 34107 ft 459 kts 317°
2026-05-05 00:11 47.82203 19.47972 34107 ft 459 kts 317°
2026-05-05 00:11 47.86856 19.41476 34107 ft 459 kts 317°
2026-05-05 00:12 47.91504 19.34970 34107 ft 459 kts 316°
2026-05-05 00:12 47.96143 19.28458 34108 ft 459 kts 316°
2026-05-05 00:13 48.00812 19.21887 34109 ft 460 kts 316°
2026-05-05 00:13 48.05458 19.15317 34105 ft 460 kts 314°
2026-05-05 00:14 48.09306 19.07708 34110 ft 460 kts 302°
2026-05-05 00:14 48.12707 18.99529 34110 ft 460 kts 302°
2026-05-05 00:15 48.16056 18.91403 34110 ft 460 kts 302°
2026-05-05 00:15 48.19414 18.83214 34108 ft 460 kts 302°
2026-05-05 00:16 48.22763 18.75012 34048 ft 460 kts 302°
2026-05-05 00:16 48.26077 18.66866 34046 ft 461 kts 301°
2026-05-05 00:17 48.29426 18.58605 34045 ft 462 kts 301°
2026-05-05 00:17 48.32717 18.50461 34045 ft 462 kts 301°
2026-05-05 00:18 48.36044 18.42204 34045 ft 462 kts 301°
2026-05-05 00:18 48.39363 18.33939 34046 ft 462 kts 300°
2026-05-05 00:19 48.42680 18.25654 34047 ft 462 kts 300°
2026-05-05 00:19 48.45983 18.17377 34045 ft 458 kts 300°
2026-05-05 00:20 48.49252 18.09161 34047 ft 459 kts 300°
2026-05-05 00:20 48.52506 18.00956 34046 ft 458 kts 300°
2026-05-05 00:21 48.55764 17.92716 34046 ft 458 kts 300°
2026-05-05 00:21 48.59021 17.84455 34046 ft 458 kts 300°
2026-05-05 00:22 48.62281 17.76160 34046 ft 458 kts 300°
2026-05-05 00:22 48.65523 17.67886 34045 ft 462 kts 300°
2026-05-05 00:23 48.68794 17.59508 34045 ft 461 kts 300°
2026-05-05 00:23 48.72053 17.51136 34045 ft 461 kts 300°
2026-05-05 00:24 48.75290 17.42798 34045 ft 461 kts 300°
2026-05-05 00:24 48.78505 17.34487 34065 ft 458 kts 299°
2026-05-05 00:25 48.81718 17.26154 34068 ft 459 kts 299°
2026-05-05 00:25 48.84947 17.17756 34069 ft 460 kts 299°
2026-05-05 00:26 48.88031 17.09269 34068 ft 459 kts 297°
2026-05-05 00:26 48.91039 17.00719 34048 ft 459 kts 297°
2026-05-05 00:27 48.94027 16.92228 34025 ft 459 kts 297°
2026-05-05 00:27 48.97033 16.83668 34025 ft 459 kts 297°
2026-05-05 00:28 49.00033 16.75106 34025 ft 459 kts 297°
2026-05-05 00:28 49.03029 16.66529 34026 ft 462 kts 297°
2026-05-05 00:29 49.06031 16.57909 34025 ft 461 kts 297°
2026-05-05 00:29 49.09016 16.49310 34025 ft 461 kts 297°
2026-05-05 00:30 49.12012 16.40655 34023 ft 461 kts 297°
2026-05-05 00:30 49.14986 16.32030 34026 ft 460 kts 296°
2026-05-05 00:31 49.17956 16.23389 34026 ft 460 kts 296°
2026-05-05 00:31 49.20929 16.14710 34026 ft 464 kts 296°
2026-05-05 00:32 49.23913 16.05970 34025 ft 462 kts 296°
2026-05-05 00:32 49.26880 15.97250 34024 ft 460 kts 295°
2026-05-05 00:33 49.29809 15.88613 34025 ft 460 kts 295°
2026-05-05 00:33 49.32742 15.79931 34024 ft 460 kts 295°
2026-05-05 00:34 49.35665 15.71252 34023 ft 461 kts 295°
2026-05-05 00:34 49.38619 15.62451 34023 ft 462 kts 295°
2026-05-05 00:35 49.41544 15.53705 34023 ft 462 kts 295°
2026-05-05 00:35 49.44465 15.44943 34023 ft 462 kts 295°
2026-05-05 00:36 49.47103 15.37001 34023 ft 462 kts 295°
2026-05-05 00:36 49.49980 15.28312 34026 ft 461 kts 294°
2026-05-05 00:37 49.52907 15.19443 34029 ft 464 kts 294°
2026-05-05 00:37 49.55824 15.10570 34025 ft 464 kts 294°
2026-05-05 00:38 49.58734 15.01691 34018 ft 464 kts 294°
2026-05-05 00:38 49.61632 14.92813 34005 ft 464 kts 294°
2026-05-05 00:39 49.64503 14.83990 34004 ft 464 kts 294°
2026-05-05 00:39 49.67390 14.75086 34004 ft 464 kts 294°
2026-05-05 00:40 49.70276 14.66152 34004 ft 464 kts 294°
2026-05-05 00:40 49.73140 14.57257 34004 ft 464 kts 294°
2026-05-05 00:41 49.75996 14.48351 34005 ft 464 kts 294°
2026-05-05 00:41 49.78838 14.39462 34003 ft 461 kts 294°
2026-05-05 00:42 49.81681 14.30534 34006 ft 461 kts 294°
2026-05-05 00:42 49.84496 14.21661 34007 ft 461 kts 294°
2026-05-05 00:43 49.87322 14.12727 34006 ft 461 kts 294°
2026-05-05 00:43 49.90126 14.03824 34006 ft 461 kts 294°
2026-05-05 00:44 49.93165 13.95039 34006 ft 463 kts 297°
2026-05-05 00:44 49.96294 13.86394 34006 ft 462 kts 297°
2026-05-05 00:45 49.99426 13.77663 34005 ft 462 kts 297°
2026-05-05 00:45 50.02536 13.68935 34005 ft 462 kts 296°
2026-05-05 00:46 50.05626 13.60226 34005 ft 462 kts 296°
2026-05-05 00:46 50.08718 13.51468 34015 ft 462 kts 296°
2026-05-05 00:47 50.11790 13.42737 34022 ft 462 kts 296°
2026-05-05 00:47 50.14870 13.33951 34023 ft 462 kts 296°
2026-05-05 00:48 50.17929 13.25192 34025 ft 462 kts 296°
2026-05-05 00:48 50.21005 13.16356 34026 ft 465 kts 295°
2026-05-05 00:49 50.24082 13.07482 34024 ft 465 kts 295°
2026-05-05 00:49 50.27135 12.98652 34023 ft 462 kts 295°
2026-05-05 00:50 50.30168 12.89845 34024 ft 463 kts 295°
2026-05-05 00:50 50.33214 12.80972 34024 ft 462 kts 295°
2026-05-05 00:51 50.36250 12.72095 34023 ft 462 kts 295°
2026-05-05 00:51 50.39263 12.63254 34023 ft 464 kts 294°
2026-05-05 00:52 50.42593 12.54558 34023 ft 465 kts 298°
2026-05-05 00:52 50.46003 12.45945 34023 ft 465 kts 298°
2026-05-05 00:53 50.49385 12.37326 34043 ft 465 kts 298°
2026-05-05 00:53 50.52761 12.28665 34047 ft 465 kts 297°
2026-05-05 00:54 50.56105 12.20047 34048 ft 463 kts 297°
2026-05-05 00:54 50.59442 12.11410 34048 ft 462 kts 297°
2026-05-05 00:55 50.62752 12.02807 34047 ft 462 kts 297°
2026-05-05 00:55 50.66073 11.94145 34047 ft 462 kts 297°
2026-05-05 00:56 50.69377 11.85500 34047 ft 462 kts 297°
2026-05-05 00:56 50.72671 11.76851 34047 ft 462 kts 297°
2026-05-05 00:57 50.75975 11.68147 34047 ft 463 kts 297°
2026-05-05 00:57 50.79269 11.59437 34047 ft 462 kts 297°
2026-05-05 00:58 50.82541 11.50760 34046 ft 462 kts 297°
2026-05-05 00:58 50.85817 11.42040 34046 ft 462 kts 297°
2026-05-05 00:59 50.89089 11.33301 34048 ft 462 kts 296°
2026-05-05 00:59 50.92357 11.24543 34030 ft 461 kts 296°
2026-05-05 01:00 50.95584 11.15869 34029 ft 458 kts 296°
2026-05-05 01:00 50.98819 11.07140 34029 ft 459 kts 296°
2026-05-05 01:01 51.02035 10.98432 34029 ft 459 kts 296°
2026-05-05 01:01 51.05239 10.89728 34029 ft 459 kts 296°
2026-05-05 01:02 51.08447 10.80986 34029 ft 459 kts 296°
2026-05-05 01:02 51.11652 10.72218 34021 ft 459 kts 296°
2026-05-05 01:03 51.14857 10.63425 34021 ft 459 kts 296°
2026-05-05 01:03 51.18043 10.54650 34021 ft 459 kts 296°
2026-05-05 01:04 51.21229 10.45845 34020 ft 459 kts 296°
2026-05-05 01:04 51.25889 10.32510 34030 ft 456 kts 291°
2026-05-05 01:05 51.28639 10.23472 34024 ft 456 kts 291°
2026-05-05 01:05 51.31414 10.14290 34024 ft 456 kts 291°
2026-05-05 01:06 51.34149 10.05209 34024 ft 456 kts 291°
2026-05-05 01:06 51.36886 9.96088 34024 ft 456 kts 291°
2026-05-05 01:07 51.39622 9.86931 34024 ft 456 kts 291°
2026-05-05 01:07 51.42350 9.77770 34024 ft 456 kts 291°
2026-05-05 01:08 51.45058 9.68640 34024 ft 457 kts 291°
2026-05-05 01:08 51.47769 9.59466 34023 ft 457 kts 291°
2026-05-05 01:09 51.50491 9.50219 34023 ft 457 kts 291°
2026-05-05 01:09 51.53184 9.41034 34023 ft 457 kts 291°
2026-05-05 01:10 51.55872 9.31833 34027 ft 456 kts 290°
2026-05-05 01:10 51.58551 9.22624 34025 ft 457 kts 290°
2026-05-05 01:11 51.61280 9.13207 34027 ft 461 kts 290°
2026-05-05 01:11 51.63951 9.03955 34027 ft 460 kts 290°
2026-05-05 01:12 51.66671 8.94498 34027 ft 460 kts 290°
2026-05-05 01:12 51.69350 8.85144 34027 ft 460 kts 290°
2026-05-05 01:13 51.72030 8.75752 34026 ft 460 kts 290°
2026-05-05 01:13 51.74695 8.66367 34027 ft 463 kts 290°
2026-05-05 01:14 51.77348 8.56999 34024 ft 458 kts 290°
2026-05-05 01:14 51.79998 8.47597 34026 ft 459 kts 290°
2026-05-05 01:15 51.82639 8.38190 34025 ft 459 kts 290°
2026-05-05 01:15 51.85248 8.28862 34029 ft 458 kts 290°
2026-05-05 01:16 51.87877 8.19420 34031 ft 462 kts 289°
2026-05-05 01:16 51.90515 8.09907 34029 ft 464 kts 289°
2026-05-05 01:17 51.93145 8.00392 34029 ft 463 kts 289°
2026-05-05 01:17 51.95758 7.90892 34029 ft 463 kts 289°
2026-05-05 01:18 51.98367 7.81371 34029 ft 463 kts 289°
2026-05-05 01:18 52.00964 7.71856 34029 ft 464 kts 290°
2026-05-05 01:19 52.03574 7.62250 34029 ft 465 kts 290°
2026-05-05 01:19 52.06177 7.52634 34029 ft 464 kts 290°
2026-05-05 01:20 52.08759 7.43052 34029 ft 464 kts 290°
2026-05-05 01:20 52.11344 7.33422 34021 ft 464 kts 289°
2026-05-05 01:21 52.13902 7.23852 34023 ft 464 kts 289°
2026-05-05 01:21 52.16388 7.14509 34023 ft 465 kts 289°
2026-05-05 01:22 52.19013 7.04605 34023 ft 465 kts 289°
2026-05-05 01:22 52.21551 6.94988 34023 ft 465 kts 289°
2026-05-05 01:23 52.24097 6.85302 34023 ft 465 kts 289°
2026-05-05 01:23 52.26625 6.75639 34042 ft 464 kts 289°
2026-05-05 01:24 52.29139 6.65994 34043 ft 462 kts 290°
2026-05-05 01:24 52.31643 6.56339 34044 ft 462 kts 290°
2026-05-05 01:25 52.34141 6.46671 34043 ft 462 kts 290°
2026-05-05 01:25 52.36620 6.37033 34043 ft 462 kts 290°
2026-05-05 01:26 52.39109 6.27316 34046 ft 462 kts 289°
2026-05-05 01:26 52.41585 6.17604 34048 ft 465 kts 289°
2026-05-05 01:27 52.44061 6.07853 34066 ft 464 kts 289°
2026-05-05 01:27 52.46516 5.98143 34067 ft 464 kts 289°
2026-05-05 01:28 52.48967 5.88406 34067 ft 464 kts 289°
2026-05-05 01:28 52.51418 5.78627 34067 ft 464 kts 289°
2026-05-05 01:29 52.53851 5.68877 34066 ft 462 kts 290°
2026-05-05 01:29 52.56288 5.59065 34067 ft 462 kts 290°
2026-05-05 01:30 52.58694 5.49337 34066 ft 462 kts 290°
2026-05-05 01:30 52.61099 5.39569 34066 ft 462 kts 290°
2026-05-05 01:31 52.63499 5.29778 34069 ft 462 kts 289°
2026-05-05 01:31 52.65887 5.19994 34069 ft 461 kts 289°
2026-05-05 01:32 52.68263 5.10213 34069 ft 460 kts 289°
2026-05-05 01:32 52.70622 5.00462 34068 ft 460 kts 289°
2026-05-05 01:33 52.72975 4.90686 34068 ft 460 kts 289°
2026-05-05 01:33 52.75321 4.80898 34068 ft 460 kts 289°
2026-05-05 01:34 52.77655 4.71122 34067 ft 455 kts 289°
2026-05-05 01:34 52.79975 4.61353 34067 ft 457 kts 289°
2026-05-05 01:35 52.82276 4.51621 34067 ft 457 kts 289°
2026-05-05 01:35 52.84576 4.41851 34067 ft 457 kts 289°
2026-05-05 01:36 52.86865 4.32085 34069 ft 456 kts 289°
2026-05-05 01:36 52.89152 4.22277 34069 ft 457 kts 289°
2026-05-05 01:37 52.91421 4.12504 34069 ft 458 kts 289°
2026-05-05 01:37 52.93696 4.02663 34070 ft 457 kts 289°
2026-05-05 01:38 52.95953 3.92855 34110 ft 458 kts 289°
2026-05-05 01:38 52.98208 3.83009 34110 ft 457 kts 289°
2026-05-05 01:39 53.00464 3.73107 34110 ft 457 kts 289°
2026-05-05 01:39 53.02699 3.63254 34110 ft 458 kts 289°
2026-05-05 01:40 53.04922 3.53410 34109 ft 458 kts 289°
2026-05-05 01:40 53.07151 3.43492 34108 ft 458 kts 289°
2026-05-05 01:41 53.09320 3.33555 34084 ft 456 kts 284°
2026-05-05 01:41 53.10430 3.23231 34088 ft 455 kts 276°
2026-05-05 01:42 53.11238 3.12844 34088 ft 454 kts 275°
2026-05-05 01:42 53.12002 3.02402 34087 ft 454 kts 275°
2026-05-05 01:43 53.12736 2.91971 34087 ft 454 kts 275°
2026-05-05 01:43 53.13446 2.81590 34087 ft 454 kts 275°
2026-05-05 01:44 53.14147 2.71132 34086 ft 454 kts 275°
2026-05-05 01:44 53.14837 2.60670 34086 ft 454 kts 275°
2026-05-05 01:45 53.15509 2.50304 34086 ft 454 kts 275°
2026-05-05 01:45 53.16180 2.39815 34085 ft 454 kts 275°
2026-05-05 01:46 53.16835 2.29407 34088 ft 453 kts 274°
2026-05-05 01:46 53.17483 2.18976 34089 ft 455 kts 275°
2026-05-05 01:47 53.18122 2.08525 34088 ft 455 kts 275°
2026-05-05 01:47 53.18755 1.98029 34088 ft 455 kts 275°
2026-05-05 01:48 53.19374 1.87607 34087 ft 455 kts 275°
2026-05-05 01:48 53.19989 1.77097 34087 ft 455 kts 275°
2026-05-05 01:49 53.20592 1.66624 34088 ft 457 kts 275°
2026-05-05 01:49 53.21187 1.56118 34086 ft 456 kts 275°
2026-05-05 01:50 53.21778 1.45540 34086 ft 456 kts 275°
2026-05-05 01:50 53.22354 1.35039 34086 ft 456 kts 275°
2026-05-05 01:51 53.22924 1.24487 34089 ft 456 kts 274°
2026-05-05 01:51 53.23485 1.13929 34089 ft 461 kts 274°
2026-05-05 01:52 53.24039 1.03319 34088 ft 459 kts 274°
2026-05-05 01:52 53.24582 0.92735 34088 ft 459 kts 274°
2026-05-05 01:53 53.25116 0.82153 34088 ft 459 kts 274°
2026-05-05 01:53 53.25643 0.71488 34088 ft 462 kts 275°
2026-05-05 01:54 53.26162 0.60816 34088 ft 462 kts 275°
2026-05-05 01:54 53.26672 0.50137 34088 ft 462 kts 275°
2026-05-05 01:55 53.27172 0.39445 34088 ft 464 kts 276°
2026-05-05 01:55 53.27663 0.28748 34089 ft 465 kts 275°
2026-05-05 01:56 53.28150 0.17924 34089 ft 465 kts 275°
2026-05-05 01:56 53.28622 0.07203 34089 ft 465 kts 275°
2026-05-05 01:57 53.29317 -0.03477 34092 ft 464 kts 281°
2026-05-05 01:57 53.30498 -0.14082 34088 ft 464 kts 281°
2026-05-05 01:58 53.31637 -0.24681 34088 ft 464 kts 281°
2026-05-05 01:58 53.32745 -0.35306 34088 ft 465 kts 281°
2026-05-05 01:59 53.33839 -0.46009 34088 ft 465 kts 281°
2026-05-05 01:59 53.34907 -0.56603 34088 ft 465 kts 281°
2026-05-05 02:00 53.35969 -0.67276 34088 ft 465 kts 280°
2026-05-05 02:00 53.37020 -0.77948 34089 ft 465 kts 280°
2026-05-05 02:01 53.38062 -0.88624 34089 ft 465 kts 280°
2026-05-05 02:01 53.39091 -0.99285 34089 ft 465 kts 280°
2026-05-05 02:02 53.40110 -1.09956 34088 ft 465 kts 280°
2026-05-05 02:02 53.41124 -1.20673 34088 ft 465 kts 280°
2026-05-05 02:03 53.42121 -1.31343 34089 ft 466 kts 280°
2026-05-05 02:03 53.43118 -1.42101 34088 ft 466 kts 280°
2026-05-05 02:04 53.44098 -1.52793 34088 ft 466 kts 280°
2026-05-05 02:04 53.45074 -1.63542 34088 ft 466 kts 280°
2026-05-05 02:05 53.46043 -1.74328 34088 ft 466 kts 279°
2026-05-05 02:05 53.46999 -1.85081 34088 ft 468 kts 279°
2026-05-05 02:06 53.47944 -1.95834 34109 ft 467 kts 279°
2026-05-05 02:06 53.48880 -2.06601 34109 ft 467 kts 279°
2026-05-05 02:07 53.49806 -2.17346 34109 ft 467 kts 279°
2026-05-05 02:07 53.50727 -2.28180 34109 ft 468 kts 279°
2026-05-05 02:08 53.51641 -2.39033 34109 ft 468 kts 279°
2026-05-05 02:08 53.52538 -2.49819 34109 ft 468 kts 279°
2026-05-05 02:09 53.53431 -2.60661 34109 ft 468 kts 279°
2026-05-05 02:09 53.54310 -2.71465 34109 ft 468 kts 278°
2026-05-05 02:10 53.55180 -2.82287 34146 ft 468 kts 278°
2026-05-05 02:10 53.56046 -2.93183 34192 ft 469 kts 278°
2026-05-05 02:11 53.56894 -3.03989 34193 ft 468 kts 278°
2026-05-05 02:11 53.57734 -3.14806 34193 ft 468 kts 278°
2026-05-05 02:12 53.58982 -3.31135 34192 ft 468 kts 278°
2026-05-05 02:13 53.59797 -3.41968 34193 ft 468 kts 278°
2026-05-05 02:13 53.60606 -3.52839 34193 ft 468 kts 278°
2026-05-05 02:14 53.61404 -3.63720 34192 ft 468 kts 278°
2026-05-05 02:14 53.62011 -3.74587 34193 ft 469 kts 274°
2026-05-05 02:15 53.62434 -3.85567 34193 ft 469 kts 274°
2026-05-05 02:15 53.62859 -3.96522 34193 ft 469 kts 274°
2026-05-05 02:16 53.63284 -4.07460 34131 ft 469 kts 274°
2026-05-05 02:16 53.63702 -4.18403 34130 ft 469 kts 274°
2026-05-05 02:17 53.64113 -4.29366 34130 ft 470 kts 275°
2026-05-05 02:17 53.64514 -4.40300 34130 ft 469 kts 275°
2026-05-05 02:18 53.64907 -4.51246 34130 ft 469 kts 275°
2026-05-05 02:18 53.65289 -4.62200 34130 ft 469 kts 275°
2026-05-05 02:19 53.65662 -4.73153 34130 ft 469 kts 274°
2026-05-05 02:19 53.66026 -4.84144 34130 ft 469 kts 274°
2026-05-05 02:20 53.66382 -4.95068 34130 ft 469 kts 274°
2026-05-05 02:20 53.66731 -5.06059 34130 ft 469 kts 274°
2026-05-05 02:21 53.67068 -5.16991 34130 ft 469 kts 274°
2026-05-05 02:21 53.67386 -5.27913 34130 ft 469 kts 274°
2026-05-05 02:22 53.67695 -5.38863 34130 ft 469 kts 274°
2026-05-05 02:22 53.67806 -5.49881 34126 ft 470 kts 265°
2026-05-05 02:23 53.66594 -5.60640 34129 ft 471 kts 259°
2026-05-05 02:23 53.65172 -5.71372 34130 ft 471 kts 258°
2026-05-05 02:24 53.63737 -5.82111 34130 ft 470 kts 258°
2026-05-05 02:24 53.62298 -5.92798 34130 ft 470 kts 258°
2026-05-05 02:25 53.60839 -6.03554 34130 ft 469 kts 258°
2026-05-05 02:25 53.59381 -6.14224 34130 ft 469 kts 258°
2026-05-05 02:26 53.57909 -6.24920 34130 ft 469 kts 258°
2026-05-05 02:26 53.56437 -6.35539 34129 ft 467 kts 258°
2026-05-05 02:27 53.54961 -6.46109 34129 ft 468 kts 258°
2026-05-05 02:27 53.53468 -6.56737 34130 ft 468 kts 258°
2026-05-05 02:28 53.51960 -6.67384 34151 ft 468 kts 257°
2026-05-05 02:28 53.50446 -6.78008 34152 ft 468 kts 257°
2026-05-05 02:29 53.48927 -6.88589 34151 ft 466 kts 257°
2026-05-05 02:29 53.47403 -6.99132 34151 ft 467 kts 257°
2026-05-05 02:30 53.45858 -7.09752 34151 ft 467 kts 257°
2026-05-05 02:30 53.44316 -7.20278 34151 ft 467 kts 257°
2026-05-05 02:31 53.42769 -7.30769 34150 ft 465 kts 257°
2026-05-05 02:31 53.41207 -7.41288 34151 ft 465 kts 257°
2026-05-05 02:32 53.39640 -7.51769 34150 ft 465 kts 257°
2026-05-05 02:32 53.38063 -7.62252 34150 ft 465 kts 257°
2026-05-05 02:33 53.36474 -7.72753 34152 ft 465 kts 257°
2026-05-05 02:33 53.34875 -7.83237 34151 ft 463 kts 256°
2026-05-05 02:34 53.33280 -7.93638 34152 ft 464 kts 256°
2026-05-05 02:34 53.31676 -8.04022 34151 ft 464 kts 256°
2026-05-05 02:35 53.30055 -8.14458 34151 ft 464 kts 256°
2026-05-05 02:35 53.28430 -8.24849 34151 ft 464 kts 256°
2026-05-05 02:36 53.26793 -8.35252 34151 ft 461 kts 257°
2026-05-05 02:36 53.25161 -8.45562 34151 ft 462 kts 257°
2026-05-05 02:37 53.23504 -8.55964 34172 ft 468 kts 257°
2026-05-05 02:37 53.21814 -8.66501 34172 ft 470 kts 256°
2026-05-05 02:38 53.20121 -8.76994 34174 ft 469 kts 256°
2026-05-05 02:38 53.18435 -8.87377 34173 ft 466 kts 256°
2026-05-05 02:39 53.16734 -8.97792 34173 ft 467 kts 256°
2026-05-05 02:39 53.15024 -9.08196 34173 ft 467 kts 256°
2026-05-05 02:40 53.13296 -9.18644 34173 ft 467 kts 256°
2026-05-05 02:40 53.11565 -9.29053 34173 ft 466 kts 256°
2026-05-05 02:41 53.09839 -9.39367 34173 ft 465 kts 256°
2026-05-05 02:41 53.08099 -9.49703 34172 ft 465 kts 256°
2026-05-05 02:42 53.06359 -9.59975 34172 ft 465 kts 256°
2026-05-05 02:42 53.04597 -9.70316 34174 ft 465 kts 255°
2026-05-05 02:43 53.02855 -9.80480 34173 ft 463 kts 255°
2026-05-05 02:43 53.01085 -9.90750 34173 ft 462 kts 255°
2026-05-05 02:44 52.99312 -10.00977 34173 ft 462 kts 255°
2026-05-05 02:44 52.97526 -10.11220 34173 ft 462 kts 255°
2026-05-05 02:45 52.95730 -10.21461 34173 ft 462 kts 255°
2026-05-05 02:45 52.93932 -10.31654 34171 ft 459 kts 255°
2026-05-05 02:46 52.92139 -10.41767 34173 ft 460 kts 255°
2026-05-05 02:46 52.90334 -10.51884 34172 ft 459 kts 255°
2026-05-05 02:47 52.88516 -10.62023 34169 ft 459 kts 255°
2026-05-05 02:47 52.86690 -10.72146 34172 ft 460 kts 255°
2026-05-05 02:48 52.84867 -10.82198 34170 ft 457 kts 255°
2026-05-05 02:48 52.83033 -10.92251 34172 ft 457 kts 255°
2026-05-05 02:49 52.81195 -11.02274 34171 ft 457 kts 255°
2026-05-05 02:49 52.79340 -11.12340 34171 ft 457 kts 255°
2026-05-05 02:50 52.77479 -11.22378 34171 ft 457 kts 255°
2026-05-05 02:50 52.75620 -11.32354 34170 ft 456 kts 255°
2026-05-05 02:51 52.73751 -11.42326 34172 ft 460 kts 255°
2026-05-05 02:51 52.71845 -11.52446 34170 ft 460 kts 255°
2026-05-05 02:52 52.69941 -11.62499 34170 ft 460 kts 255°
2026-05-05 02:52 52.68028 -11.72545 34172 ft 461 kts 254°
2026-05-05 02:53 52.66115 -11.82540 34171 ft 458 kts 254°
2026-05-05 02:53 52.64193 -11.92533 34172 ft 459 kts 254°
2026-05-05 02:54 52.62255 -12.02547 34172 ft 459 kts 254°
2026-05-05 02:54 52.60318 -12.12512 34171 ft 459 kts 254°
2026-05-05 02:55 52.58367 -12.22495 34171 ft 459 kts 254°
2026-05-05 02:55 52.56418 -12.32413 34171 ft 460 kts 254°
2026-05-05 02:56 52.54445 -12.42407 34171 ft 459 kts 254°
2026-05-05 02:56 52.52470 -12.52355 34170 ft 459 kts 254°
2026-05-05 02:57 52.50499 -12.62233 34170 ft 459 kts 254°
2026-05-05 02:57 52.48505 -12.72176 34173 ft 460 kts 253°
2026-05-05 02:58 52.46498 -12.82132 34173 ft 461 kts 253°
2026-05-05 02:58 52.44485 -12.92071 34172 ft 461 kts 253°
2026-05-05 02:59 52.42464 -13.01996 34172 ft 461 kts 253°
2026-05-05 02:59 52.40429 -13.11942 34172 ft 461 kts 253°
2026-05-05 03:00 52.38383 -13.21889 34172 ft 461 kts 253°
2026-05-05 03:00 52.36341 -13.31771 34171 ft 461 kts 253°
2026-05-05 03:01 52.34265 -13.41766 34171 ft 463 kts 253°
2026-05-05 03:01 52.32200 -13.51660 34171 ft 463 kts 253°
2026-05-05 03:02 52.30116 -13.61594 34171 ft 463 kts 253°
2026-05-05 03:02 52.28023 -13.71519 34174 ft 463 kts 253°
2026-05-05 03:03 52.25928 -13.81406 34173 ft 462 kts 252°
2026-05-05 03:03 52.23826 -13.91280 34174 ft 462 kts 252°
2026-05-05 03:04 52.21703 -14.01206 34173 ft 462 kts 252°
2026-05-05 03:04 52.19582 -14.11075 34173 ft 462 kts 252°
2026-05-05 03:05 52.17456 -14.20914 34173 ft 462 kts 252°
2026-05-05 03:05 52.15322 -14.30745 34172 ft 460 kts 252°
2026-05-05 03:06 52.13187 -14.40536 34172 ft 460 kts 252°
2026-05-05 03:06 52.11039 -14.50339 34172 ft 460 kts 252°
2026-05-05 03:07 52.08896 -14.60073 34172 ft 460 kts 252°
2026-05-05 03:07 52.06739 -14.69824 34174 ft 460 kts 252°
2026-05-05 03:08 52.04565 -14.79605 34174 ft 461 kts 252°
2026-05-05 03:08 52.02383 -14.89376 34174 ft 461 kts 252°
2026-05-05 03:09 52.00742 -14.99354 34169 ft 458 kts 265°
2026-05-05 03:09 52.00982 -15.09620 34459 ft 459 kts 283°
2026-05-05 03:09 52.01838 -15.14542 34870 ft 455 kts 291°
2026-05-05 03:10 52.03131 -15.19209 35241 ft 452 kts 296°
2026-05-05 03:10 52.04476 -15.23766 35542 ft 451 kts 295°
2026-05-05 03:10 52.05763 -15.28423 35830 ft 450 kts 294°
2026-05-05 03:10 52.06979 -15.33097 36129 ft 449 kts 294°
2026-05-05 03:11 52.08140 -15.37755 36175 ft 451 kts 293°
2026-05-05 03:11 52.10397 -15.47246 36178 ft 451 kts 292°
2026-05-05 03:12 52.12586 -15.56814 36178 ft 451 kts 291°
2026-05-05 03:12 52.14724 -15.66372 36179 ft 451 kts 290°
2026-05-05 03:13 52.16843 -15.75979 36180 ft 451 kts 290°
2026-05-05 03:13 52.18938 -15.85567 36180 ft 451 kts 290°
2026-05-05 03:14 52.21029 -15.95204 36179 ft 451 kts 290°
2026-05-05 03:14 52.23100 -16.04806 36179 ft 451 kts 290°
2026-05-05 03:15 52.25170 -16.14455 36179 ft 451 kts 290°
2026-05-05 03:15 52.27219 -16.24053 36178 ft 450 kts 290°
2026-05-05 03:16 52.29265 -16.33687 36178 ft 450 kts 290°
2026-05-05 03:16 52.31305 -16.43340 36178 ft 450 kts 290°
2026-05-05 03:17 52.33330 -16.52967 36177 ft 450 kts 290°
2026-05-05 03:17 52.35348 -16.62607 36177 ft 450 kts 290°
2026-05-05 03:18 52.37359 -16.72259 36179 ft 450 kts 289°
2026-05-05 03:18 52.39370 -16.81957 36179 ft 450 kts 289°
2026-05-05 03:19 52.42360 -16.96470 36178 ft 450 kts 289°
2026-05-05 03:19 52.44346 -17.06167 36178 ft 450 kts 289°
2026-05-05 03:20 52.46328 -17.15888 36178 ft 450 kts 289°
2026-05-05 03:20 52.48292 -17.25576 36178 ft 450 kts 289°
2026-05-05 03:21 52.50248 -17.35270 36177 ft 447 kts 289°
2026-05-05 03:21 52.52190 -17.44938 36177 ft 448 kts 289°
2026-05-05 03:22 52.54137 -17.54684 36176 ft 448 kts 289°
2026-05-05 03:22 52.56058 -17.64344 36176 ft 448 kts 289°
2026-05-05 03:23 52.57975 -17.74035 36179 ft 448 kts 288°
2026-05-05 03:23 52.59884 -17.83728 36178 ft 446 kts 288°
2026-05-05 03:24 52.61782 -17.93419 36178 ft 446 kts 288°
2026-05-05 03:24 52.63676 -18.03139 36178 ft 446 kts 288°
2026-05-05 03:25 52.65559 -18.12853 36177 ft 446 kts 288°
2026-05-05 03:25 52.67443 -18.22616 36177 ft 446 kts 288°
2026-05-05 03:26 52.69307 -18.32331 36176 ft 445 kts 288°
2026-05-05 03:26 52.71155 -18.42009 36176 ft 445 kts 288°
2026-05-05 03:27 52.73011 -18.51778 36176 ft 445 kts 288°
2026-05-05 03:27 52.74847 -18.61491 36175 ft 445 kts 288°
2026-05-05 03:28 52.76682 -18.71253 36178 ft 444 kts 287°
2026-05-05 03:28 52.78489 -18.80913 36177 ft 443 kts 287°
2026-05-05 03:29 52.80299 -18.90645 36178 ft 443 kts 287°
2026-05-05 03:29 52.82100 -19.00372 36177 ft 443 kts 287°
2026-05-05 03:30 52.83883 -19.10056 36177 ft 443 kts 287°
2026-05-05 03:30 52.85661 -19.19764 36176 ft 443 kts 287°
2026-05-05 03:31 52.87448 -19.29576 36176 ft 443 kts 287°
2026-05-05 03:31 52.89220 -19.39349 36175 ft 443 kts 287°
2026-05-05 03:32 52.90972 -19.49070 36175 ft 443 kts 287°
2026-05-05 03:32 52.92731 -19.58883 36175 ft 443 kts 287°
2026-05-05 03:33 52.94474 -19.68657 36178 ft 443 kts 287°
2026-05-05 03:33 52.96204 -19.78414 36178 ft 444 kts 287°
2026-05-05 03:34 52.97931 -19.88204 36177 ft 444 kts 287°
2026-05-05 03:34 52.99599 -19.98110 36171 ft 444 kts 282°
2026-05-05 03:35 53.00257 -20.08283 36176 ft 445 kts 275°
2026-05-05 03:35 53.00718 -20.18518 36176 ft 445 kts 275°
2026-05-05 03:36 53.01150 -20.28747 36176 ft 446 kts 275°
2026-05-05 03:36 53.01561 -20.38963 36175 ft 446 kts 275°
2026-05-05 03:37 53.01961 -20.49235 36175 ft 446 kts 275°
2026-05-05 03:37 53.02348 -20.59490 36175 ft 446 kts 275°
2026-05-05 03:38 53.02724 -20.69717 36178 ft 446 kts 274°
2026-05-05 03:38 53.03091 -20.79976 36178 ft 446 kts 274°
2026-05-05 03:39 53.03450 -20.90249 36177 ft 446 kts 274°
2026-05-05 03:39 53.03798 -21.00491 36177 ft 446 kts 274°
2026-05-05 03:40 53.04137 -21.10740 36176 ft 446 kts 274°
2026-05-05 03:40 53.04469 -21.21014 36176 ft 446 kts 274°
2026-05-05 03:41 53.04790 -21.31240 36176 ft 446 kts 274°
2026-05-05 03:41 53.05103 -21.41475 36175 ft 446 kts 274°
2026-05-05 03:42 53.05407 -21.51748 36175 ft 446 kts 274°
2026-05-05 03:42 53.05702 -21.61996 36174 ft 446 kts 274°
2026-05-05 03:43 53.05990 -21.72288 36178 ft 446 kts 273°
2026-05-05 03:43 53.06267 -21.82542 36178 ft 445 kts 273°
2026-05-05 03:44 53.06538 -21.92852 36177 ft 445 kts 273°
2026-05-05 03:44 53.06797 -22.03096 36177 ft 445 kts 273°
2026-05-05 03:45 53.07048 -22.13347 36176 ft 445 kts 273°
2026-05-05 03:45 53.07291 -22.23612 36176 ft 445 kts 273°
2026-05-05 03:46 53.07525 -22.33925 36176 ft 446 kts 273°
2026-05-05 03:46 53.07749 -22.44158 36175 ft 446 kts 273°
2026-05-05 03:47 53.07966 -22.54463 36175 ft 446 kts 273°
2026-05-05 03:47 53.08173 -22.64715 36174 ft 446 kts 273°
2026-05-05 03:48 53.08371 -22.74992 36178 ft 446 kts 272°
2026-05-05 03:48 53.08562 -22.85330 36178 ft 446 kts 272°
2026-05-05 03:49 53.08743 -22.95618 36177 ft 446 kts 272°
2026-05-05 03:49 53.08914 -23.05869 36177 ft 446 kts 272°
2026-05-05 03:50 53.09078 -23.16225 36177 ft 446 kts 272°
2026-05-05 03:50 53.09231 -23.26471 36177 ft 446 kts 272°
2026-05-05 03:51 53.09376 -23.36782 36176 ft 445 kts 272°
2026-05-05 03:51 53.09513 -23.47041 36175 ft 445 kts 272°
2026-05-05 03:52 53.09640 -23.57335 36175 ft 445 kts 272°
2026-05-05 03:52 53.09758 -23.67545 36177 ft 445 kts 271°
2026-05-05 03:53 53.09868 -23.77823 36178 ft 445 kts 271°
2026-05-05 03:53 53.09969 -23.88126 36178 ft 445 kts 271°
2026-05-05 03:54 53.10061 -23.98372 36179 ft 445 kts 271°
2026-05-05 03:54 53.10144 -24.08709 36178 ft 445 kts 271°
2026-05-05 03:55 53.10218 -24.18933 36178 ft 445 kts 271°
2026-05-05 03:55 53.10284 -24.29279 36178 ft 446 kts 271°
2026-05-05 03:56 53.10340 -24.39529 36177 ft 446 kts 271°
2026-05-05 03:56 53.10387 -24.49810 36176 ft 446 kts 271°
2026-05-05 03:57 53.10426 -24.60124 36176 ft 446 kts 271°
2026-05-05 03:57 53.10457 -24.70444 36180 ft 446 kts 270°
2026-05-05 03:58 53.10477 -24.80743 36180 ft 447 kts 270°
2026-05-05 03:58 53.10490 -24.91081 36179 ft 446 kts 270°
2026-05-05 03:59 53.10493 -25.01394 36179 ft 446 kts 270°
2026-05-05 03:59 53.10487 -25.11683 36178 ft 446 kts 270°
2026-05-05 04:00 53.10473 -25.22006 36178 ft 446 kts 270°
2026-05-05 04:00 53.10449 -25.32355 36177 ft 446 kts 270°
2026-05-05 04:01 53.10417 -25.42672 36177 ft 446 kts 270°
2026-05-05 04:01 53.10376 -25.52932 36176 ft 446 kts 270°
2026-05-05 04:02 53.10325 -25.63273 36176 ft 446 kts 270°
2026-05-05 04:02 53.10267 -25.73559 36180 ft 446 kts 270°
2026-05-05 04:03 53.10198 -25.83880 36180 ft 448 kts 270°
2026-05-05 04:03 53.10122 -25.94186 36179 ft 447 kts 270°
2026-05-05 04:04 53.10036 -26.04479 36179 ft 447 kts 270°
2026-05-05 04:04 53.09940 -26.14845 36179 ft 447 kts 270°
2026-05-05 04:05 53.09837 -26.25149 36178 ft 447 kts 270°
2026-05-05 04:05 53.09724 -26.35473 36179 ft 450 kts 271°
2026-05-05 04:06 53.09601 -26.45877 36177 ft 449 kts 271°
2026-05-05 04:06 53.09470 -26.56212 36177 ft 449 kts 271°
2026-05-05 04:07 53.09330 -26.66626 36178 ft 449 kts 270°
2026-05-05 04:07 53.09181 -26.76969 36181 ft 450 kts 270°
2026-05-05 04:08 53.09022 -26.87381 36181 ft 454 kts 271°
2026-05-05 04:08 53.08852 -26.97924 36180 ft 455 kts 271°
2026-05-05 04:09 53.08673 -27.08396 36180 ft 454 kts 271°
2026-05-05 04:09 53.08485 -27.18856 36180 ft 454 kts 271°
2026-05-05 04:10 53.08289 -27.29345 36180 ft 455 kts 271°
2026-05-05 04:10 53.08081 -27.39869 36180 ft 457 kts 271°
2026-05-05 04:11 53.07864 -27.50422 36179 ft 457 kts 271°
2026-05-05 04:11 53.07639 -27.60915 36179 ft 457 kts 271°
2026-05-05 04:12 53.07403 -27.71504 36182 ft 457 kts 270°
2026-05-05 04:12 53.07160 -27.81985 36181 ft 456 kts 270°
2026-05-05 04:13 53.06905 -27.92559 36181 ft 456 kts 270°
2026-05-05 04:13 53.06643 -28.03026 36181 ft 456 kts 270°
2026-05-05 04:14 53.06371 -28.13538 36181 ft 456 kts 270°
2026-05-05 04:14 53.06090 -28.24048 36180 ft 456 kts 270°
2026-05-05 04:15 53.05798 -28.34615 36180 ft 455 kts 270°
2026-05-05 04:15 53.05499 -28.45115 36180 ft 455 kts 270°
2026-05-05 04:16 53.05190 -28.55597 36179 ft 455 kts 270°
2026-05-05 04:16 53.04873 -28.66073 36233 ft 456 kts 270°
2026-05-05 04:17 53.04546 -28.76553 36184 ft 455 kts 269°
2026-05-05 04:17 53.04211 -28.86983 36266 ft 454 kts 269°
2026-05-05 04:18 53.03865 -28.97513 36323 ft 455 kts 269°
2026-05-05 04:18 53.03511 -29.07963 36324 ft 454 kts 269°
2026-05-05 04:19 53.03149 -29.18408 36324 ft 454 kts 269°
2026-05-05 04:19 53.02778 -29.28828 36324 ft 454 kts 269°
2026-05-05 04:20 53.02396 -29.39292 36323 ft 453 kts 269°
2026-05-05 04:20 53.02008 -29.49678 36322 ft 453 kts 269°
2026-05-05 04:21 53.01609 -29.60129 36322 ft 453 kts 269°
2026-05-05 04:21 53.01201 -29.70550 36326 ft 454 kts 269°
2026-05-05 04:22 53.00784 -29.80984 36325 ft 454 kts 269°
2026-05-05 04:22 53.00358 -29.91403 36325 ft 454 kts 269°
2026-05-05 04:23 52.99929 -30.01850 36321 ft 453 kts 270°
2026-05-05 04:23 53.00297 -30.12182 36324 ft 451 kts 277°
2026-05-05 04:24 53.00818 -30.22533 36324 ft 450 kts 277°
2026-05-05 04:25 53.01503 -30.38141 36323 ft 452 kts 277°
2026-05-05 04:25 53.01918 -30.48463 36323 ft 451 kts 277°
2026-05-05 04:26 53.02317 -30.58854 36322 ft 450 kts 277°
2026-05-05 04:26 53.02702 -30.69219 36326 ft 451 kts 276°
2026-05-05 04:27 53.03077 -30.79634 36313 ft 450 kts 276°
2026-05-05 04:27 53.03436 -30.89899 36211 ft 448 kts 276°
2026-05-05 04:28 53.03789 -31.00234 36162 ft 448 kts 276°
2026-05-05 04:28 53.04131 -31.10539 36160 ft 448 kts 276°
2026-05-05 04:29 53.04464 -31.20863 36160 ft 448 kts 276°
2026-05-05 04:29 53.04788 -31.31195 36159 ft 447 kts 276°
2026-05-05 04:30 53.05104 -31.41539 36159 ft 447 kts 276°
2026-05-05 04:30 53.05410 -31.51851 36159 ft 447 kts 276°
2026-05-05 04:31 53.05708 -31.62206 36158 ft 447 kts 276°
2026-05-05 04:31 53.05997 -31.72547 36162 ft 448 kts 275°
2026-05-05 04:32 53.06273 -31.82743 36162 ft 447 kts 275°
2026-05-05 04:32 53.06542 -31.93021 36161 ft 447 kts 275°
2026-05-05 04:33 53.06804 -32.03344 36161 ft 447 kts 275°
2026-05-05 04:33 53.07056 -32.13676 36161 ft 447 kts 275°
2026-05-05 04:34 53.07300 -32.24028 36160 ft 447 kts 275°
2026-05-05 04:34 53.07532 -32.34269 36161 ft 447 kts 276°
2026-05-05 04:35 53.07758 -32.44596 36160 ft 446 kts 276°
2026-05-05 04:35 53.07974 -32.54859 36159 ft 445 kts 276°
2026-05-05 04:36 53.08181 -32.65155 36159 ft 445 kts 275°
2026-05-05 04:36 53.08379 -32.75400 36163 ft 444 kts 275°
2026-05-05 04:37 53.08564 -32.85557 36162 ft 437 kts 276°
2026-05-05 04:37 53.08744 -32.95704 36162 ft 440 kts 276°
2026-05-05 04:38 53.08913 -33.05857 36162 ft 439 kts 276°
2026-05-05 04:38 53.09074 -33.15973 36161 ft 440 kts 276°
2026-05-05 04:39 53.09226 -33.26124 36161 ft 440 kts 276°
2026-05-05 04:39 53.09367 -33.36197 36160 ft 432 kts 276°
2026-05-05 04:40 53.09502 -33.46198 36159 ft 434 kts 276°
2026-05-05 04:40 53.09627 -33.56233 36159 ft 434 kts 276°
2026-05-05 04:41 53.09743 -33.66259 36159 ft 434 kts 275°
2026-05-05 04:41 53.09852 -33.76288 36163 ft 435 kts 275°
2026-05-05 04:42 53.09952 -33.86313 36163 ft 435 kts 275°
2026-05-05 04:42 53.10043 -33.96367 36162 ft 435 kts 275°
2026-05-05 04:43 53.10126 -34.06354 36161 ft 435 kts 275°
2026-05-05 04:43 53.10200 -34.16388 36161 ft 435 kts 275°
2026-05-05 04:44 53.10267 -34.26452 36160 ft 435 kts 275°
2026-05-05 04:44 53.10325 -34.36460 36159 ft 436 kts 274°
2026-05-05 04:45 53.10374 -34.46564 36158 ft 435 kts 274°
2026-05-05 04:45 53.10414 -34.56601 36158 ft 435 kts 274°
2026-05-05 04:46 53.10446 -34.66614 36159 ft 435 kts 274°
2026-05-05 04:46 53.10471 -34.76690 36163 ft 436 kts 274°
2026-05-05 04:47 53.10486 -34.86696 36162 ft 433 kts 274°
2026-05-05 04:47 53.10493 -34.96744 36161 ft 434 kts 274°
2026-05-05 04:48 53.10491 -35.06737 36161 ft 435 kts 274°
2026-05-05 04:48 53.10481 -35.16802 36160 ft 435 kts 274°
2026-05-05 04:49 53.10463 -35.26846 36159 ft 435 kts 273°
2026-05-05 04:49 53.10436 -35.36955 36158 ft 436 kts 272°
2026-05-05 04:50 53.10401 -35.47006 36157 ft 435 kts 272°
2026-05-05 04:50 53.10357 -35.57046 36157 ft 434 kts 272°
2026-05-05 04:51 53.10304 -35.67107 36160 ft 434 kts 272°
2026-05-05 04:51 53.10244 -35.77123 36160 ft 434 kts 271°
2026-05-05 04:52 53.10175 -35.87147 36160 ft 437 kts 271°
2026-05-05 04:52 53.10097 -35.97214 36159 ft 435 kts 271°
2026-05-05 04:53 53.10011 -36.07265 36159 ft 435 kts 271°
2026-05-05 04:53 53.09916 -36.17345 36158 ft 435 kts 271°
2026-05-05 04:54 53.09813 -36.27372 36158 ft 435 kts 270°
2026-05-05 04:54 53.09702 -36.37412 36156 ft 435 kts 270°
2026-05-05 04:55 53.09582 -36.47431 36156 ft 435 kts 270°
2026-05-05 04:55 53.09454 -36.57459 36155 ft 435 kts 270°
2026-05-05 04:56 53.09317 -36.67529 36159 ft 435 kts 269°
2026-05-05 04:56 53.09173 -36.77512 36159 ft 435 kts 269°
2026-05-05 04:57 53.09019 -36.87579 36158 ft 437 kts 268°
2026-05-05 04:57 53.08856 -36.97658 36158 ft 437 kts 268°
2026-05-05 04:58 53.08684 -37.07745 36157 ft 438 kts 268°
2026-05-05 04:58 53.08503 -37.17921 36157 ft 438 kts 268°
2026-05-05 04:59 53.08315 -37.27982 36154 ft 439 kts 268°
2026-05-05 04:59 53.08115 -37.38223 36155 ft 443 kts 267°
2026-05-05 05:00 53.07906 -37.48463 36154 ft 442 kts 267°
2026-05-05 05:00 53.07690 -37.58615 36154 ft 442 kts 267°
2026-05-05 05:01 53.07463 -37.68846 36158 ft 442 kts 266°
2026-05-05 05:01 53.07229 -37.79065 36156 ft 442 kts 266°
2026-05-05 05:02 53.06985 -37.89285 36156 ft 446 kts 266°
2026-05-05 05:02 53.06731 -37.99564 36156 ft 445 kts 266°
2026-05-05 05:03 53.06469 -38.09807 36155 ft 445 kts 266°
2026-05-05 05:03 53.06198 -38.20061 36155 ft 445 kts 266°
2026-05-05 05:04 53.05918 -38.30307 36152 ft 444 kts 265°
2026-05-05 05:04 53.05627 -38.40644 36153 ft 448 kts 265°
2026-05-05 05:05 53.05329 -38.50926 36153 ft 447 kts 265°
2026-05-05 05:05 53.05022 -38.61196 36153 ft 447 kts 265°
2026-05-05 05:06 53.04706 -38.71471 36155 ft 446 kts 264°
2026-05-05 05:06 53.04379 -38.81795 36155 ft 449 kts 263°
2026-05-05 05:07 53.04042 -38.92169 36153 ft 450 kts 263°
2026-05-05 05:07 53.03697 -39.02517 36154 ft 450 kts 263°
2026-05-05 05:08 53.03341 -39.12896 36153 ft 450 kts 263°
2026-05-05 05:08 53.02977 -39.23268 36153 ft 450 kts 263°
2026-05-05 05:09 53.02602 -39.33670 36154 ft 454 kts 263°
2026-05-05 05:09 53.02219 -39.44077 36152 ft 453 kts 263°
2026-05-05 05:10 53.01824 -39.54533 36152 ft 453 kts 263°
2026-05-05 05:10 53.01419 -39.65000 36152 ft 453 kts 263°
2026-05-05 05:11 53.01008 -39.75401 36153 ft 453 kts 262°
2026-05-05 05:11 53.00584 -39.85894 36152 ft 457 kts 261°
2026-05-05 05:12 53.00150 -39.96407 36152 ft 456 kts 261°
2026-05-05 05:12 52.99598 -40.06828 36152 ft 455 kts 260°
2026-05-05 05:13 52.99010 -40.17244 36152 ft 455 kts 260°
2026-05-05 05:13 52.98407 -40.27679 36150 ft 455 kts 259°
2026-05-05 05:14 52.97790 -40.38173 36150 ft 457 kts 259°
2026-05-05 05:14 52.97163 -40.48660 36150 ft 457 kts 259°
2026-05-05 05:15 52.96526 -40.59144 36150 ft 457 kts 259°
2026-05-05 05:15 52.95884 -40.69559 36151 ft 456 kts 258°
2026-05-05 05:16 52.95231 -40.79996 36150 ft 459 kts 258°
2026-05-05 05:16 52.94561 -40.90525 36149 ft 460 kts 258°
2026-05-05 05:17 52.93884 -41.01051 36150 ft 460 kts 258°
2026-05-05 05:17 52.93197 -41.11581 36149 ft 460 kts 258°
2026-05-05 05:18 52.92499 -41.22126 36149 ft 460 kts 258°
2026-05-05 05:18 52.91792 -41.32651 36151 ft 464 kts 258°
2026-05-05 05:19 52.91069 -41.43282 36149 ft 464 kts 258°
2026-05-05 05:19 52.90341 -41.53836 36097 ft 465 kts 258°
2026-05-05 05:20 52.89598 -41.64482 36006 ft 465 kts 258°
2026-05-05 05:20 52.88852 -41.75032 35919 ft 464 kts 257°
2026-05-05 05:21 52.88083 -41.85740 35917 ft 470 kts 256°
2026-05-05 05:21 52.87306 -41.96450 35917 ft 469 kts 256°
2026-05-05 05:22 52.86523 -42.07102 35917 ft 469 kts 256°
2026-05-05 05:22 52.85726 -42.17804 35914 ft 469 kts 256°
2026-05-05 05:23 52.84921 -42.28490 35818 ft 470 kts 256°
2026-05-05 05:23 52.84105 -42.39181 35874 ft 470 kts 256°
2026-05-05 05:24 52.83277 -42.49896 35902 ft 471 kts 256°
2026-05-05 05:24 52.82440 -42.60611 35799 ft 471 kts 256°
2026-05-05 05:25 52.81593 -42.71324 35690 ft 470 kts 255°
2026-05-05 05:25 52.80737 -42.82009 35675 ft 474 kts 255°
2026-05-05 05:26 52.79864 -42.92804 35673 ft 473 kts 255°
2026-05-05 05:26 52.78989 -43.03495 35673 ft 473 kts 255°
2026-05-05 05:27 52.78093 -43.14305 35616 ft 474 kts 255°
2026-05-05 05:27 52.76742 -43.30395 35509 ft 472 kts 255°
2026-05-05 05:28 52.75827 -43.41131 35510 ft 473 kts 255°
2026-05-05 05:28 52.74908 -43.51808 35510 ft 472 kts 255°
2026-05-05 05:29 52.73989 -43.62400 35591 ft 465 kts 255°
2026-05-05 05:29 52.73056 -43.72987 35670 ft 466 kts 254°
2026-05-05 05:30 52.72110 -43.83599 35623 ft 472 kts 254°
2026-05-05 05:30 52.71149 -43.94298 35517 ft 471 kts 254°
2026-05-05 05:31 52.70181 -44.04969 35508 ft 471 kts 254°
2026-05-05 05:31 52.69206 -44.15599 35508 ft 471 kts 254°
2026-05-05 05:32 52.68221 -44.26234 35507 ft 471 kts 254°
2026-05-05 05:32 52.67213 -44.36986 35509 ft 478 kts 254°
2026-05-05 05:33 52.66194 -44.47778 35508 ft 477 kts 254°
2026-05-05 05:33 52.65161 -44.58596 35509 ft 477 kts 254°
2026-05-05 05:34 52.64124 -44.69355 35506 ft 476 kts 253°
2026-05-05 05:34 52.63078 -44.80088 35507 ft 480 kts 253°
2026-05-05 05:35 52.62008 -44.90952 35506 ft 482 kts 253°
2026-05-05 05:35 52.60931 -45.01811 35506 ft 482 kts 253°
2026-05-05 05:36 52.59849 -45.12600 35507 ft 482 kts 253°
2026-05-05 05:36 52.58752 -45.23438 35507 ft 482 kts 253°
2026-05-05 05:37 52.57637 -45.34347 35507 ft 485 kts 253°
2026-05-05 05:37 52.56516 -45.45217 35507 ft 484 kts 253°
2026-05-05 05:38 52.55385 -45.56076 35507 ft 484 kts 253°
2026-05-05 05:38 52.54245 -45.66924 35507 ft 483 kts 252°
2026-05-05 05:39 52.53097 -45.77752 35504 ft 482 kts 252°
2026-05-05 05:39 52.51931 -45.88636 35504 ft 483 kts 252°
2026-05-05 05:40 52.50766 -45.99425 35510 ft 483 kts 252°
2026-05-05 05:40 52.49579 -46.10314 35512 ft 483 kts 252°
2026-05-05 05:41 52.48396 -46.21077 35512 ft 483 kts 252°
2026-05-05 05:41 52.47191 -46.31931 35513 ft 485 kts 253°
2026-05-05 05:42 52.45978 -46.42774 35512 ft 484 kts 253°
2026-05-05 05:42 52.44751 -46.53641 35512 ft 484 kts 253°
2026-05-05 05:43 52.43520 -46.64450 35512 ft 484 kts 253°
2026-05-05 05:43 52.42282 -46.75235 35510 ft 483 kts 252°
2026-05-05 05:44 52.41021 -46.86112 35510 ft 485 kts 253°
2026-05-05 05:44 52.39751 -46.96989 35510 ft 484 kts 253°
2026-05-05 05:45 52.38481 -47.07777 35510 ft 484 kts 253°
2026-05-05 05:45 52.37203 -47.18538 35510 ft 484 kts 253°
2026-05-05 05:46 52.35909 -47.29340 35510 ft 485 kts 253°
2026-05-05 05:46 52.34599 -47.40189 35510 ft 486 kts 253°
2026-05-05 05:47 52.33286 -47.50984 35510 ft 486 kts 253°
2026-05-05 05:47 52.31959 -47.61792 35510 ft 486 kts 253°
2026-05-05 05:48 52.30620 -47.72629 35508 ft 485 kts 252°
2026-05-05 05:48 52.29283 -47.83347 35508 ft 484 kts 252°
2026-05-05 05:49 52.27931 -47.94114 35509 ft 485 kts 252°
2026-05-05 05:49 52.26567 -48.04882 35509 ft 485 kts 252°
2026-05-05 05:50 52.25196 -48.15625 35509 ft 484 kts 252°
2026-05-05 05:50 52.23822 -48.26314 35506 ft 478 kts 253°
2026-05-05 05:51 52.22458 -48.36839 35509 ft 478 kts 253°
2026-05-05 05:51 52.21080 -48.47394 35508 ft 478 kts 253°
2026-05-05 05:52 52.19688 -48.57970 35508 ft 478 kts 253°
2026-05-05 05:52 52.18286 -48.68553 35507 ft 477 kts 252°
2026-05-05 05:53 52.16884 -48.79058 35508 ft 477 kts 252°
2026-05-05 05:53 52.15472 -48.89556 35507 ft 476 kts 252°
2026-05-05 05:54 52.14049 -49.00064 35507 ft 477 kts 252°
2026-05-05 05:54 52.12612 -49.10597 35507 ft 477 kts 252°
2026-05-05 05:55 52.11168 -49.21106 35507 ft 477 kts 252°
2026-05-05 05:55 52.09714 -49.31613 35507 ft 477 kts 252°
2026-05-05 05:56 52.08251 -49.42115 35507 ft 477 kts 252°
2026-05-05 05:56 52.06779 -49.52602 35506 ft 477 kts 252°
2026-05-05 05:57 52.05303 -49.63049 35506 ft 477 kts 252°
2026-05-05 05:57 52.03814 -49.73513 35506 ft 476 kts 252°
2026-05-05 05:58 52.02309 -49.84016 35506 ft 478 kts 252°
2026-05-05 05:58 52.00793 -49.94530 35506 ft 478 kts 252°
2026-05-05 05:59 51.98755 -50.04627 35506 ft 473 kts 245°
2026-05-05 05:59 51.96415 -50.14628 35505 ft 473 kts 244°
2026-05-05 06:00 51.94054 -50.24533 35505 ft 472 kts 244°
2026-05-05 06:00 51.91671 -50.34425 35506 ft 467 kts 245°
2026-05-05 06:01 51.89311 -50.44139 35514 ft 466 kts 245°
2026-05-05 06:01 51.86918 -50.53931 35515 ft 466 kts 245°
2026-05-05 06:02 51.84541 -50.63601 35514 ft 466 kts 245°
2026-05-05 06:02 51.82144 -50.73308 35515 ft 466 kts 244°
2026-05-05 06:03 51.79728 -50.83046 35515 ft 465 kts 245°
2026-05-05 06:03 51.77333 -50.92659 35515 ft 465 kts 245°
2026-05-05 06:04 51.74909 -51.02339 35514 ft 465 kts 245°
2026-05-05 06:04 51.72506 -51.11902 35513 ft 458 kts 245°
2026-05-05 06:05 51.70106 -51.21403 35513 ft 460 kts 245°
2026-05-05 06:05 51.67690 -51.30931 35514 ft 461 kts 245°
2026-05-05 06:06 51.65260 -51.40474 35512 ft 461 kts 245°
2026-05-05 06:06 51.62822 -51.50004 35512 ft 461 kts 245°
2026-05-05 06:07 51.60358 -51.59597 35511 ft 461 kts 245°
2026-05-05 06:07 51.57923 -51.69038 35513 ft 461 kts 244°
2026-05-05 06:08 51.55456 -51.78561 35513 ft 462 kts 244°
2026-05-05 06:08 51.53028 -51.87898 35562 ft 462 kts 244°
2026-05-05 06:09 51.50545 -51.97405 35661 ft 463 kts 244°
2026-05-05 06:09 51.48053 -52.06905 35570 ft 463 kts 244°
2026-05-05 06:10 51.45562 -52.16367 35512 ft 462 kts 244°
2026-05-05 06:10 51.43059 -52.25831 35558 ft 462 kts 244°
2026-05-05 06:11 51.40530 -52.35352 35663 ft 465 kts 244°
2026-05-05 06:11 51.38008 -52.44812 35677 ft 464 kts 244°
2026-05-05 06:12 51.35470 -52.54290 35607 ft 464 kts 244°
2026-05-05 06:12 51.32931 -52.63737 35603 ft 463 kts 244°
2026-05-05 06:13 51.30382 -52.73176 35676 ft 464 kts 243°
2026-05-05 06:13 51.27803 -52.82687 35627 ft 468 kts 243°
2026-05-05 06:14 51.25226 -52.92159 35534 ft 465 kts 243°
2026-05-05 06:14 51.22662 -53.01541 35592 ft 460 kts 244°
2026-05-05 06:15 51.20089 -53.10916 35674 ft 463 kts 244°
2026-05-05 06:15 51.17506 -53.20293 35650 ft 463 kts 244°
2026-05-05 06:16 51.14824 -53.29614 35690 ft 468 kts 242°
2026-05-05 06:16 51.13408 -53.34293 35996 ft 467 kts 242°
2026-05-05 06:16 51.12004 -53.38931 36354 ft 465 kts 242°
2026-05-05 06:17 51.10611 -53.43527 36617 ft 465 kts 242°
2026-05-05 06:17 51.09216 -53.48128 36805 ft 466 kts 242°
2026-05-05 06:17 51.07809 -53.52763 36986 ft 466 kts 243°
2026-05-05 06:17 51.06398 -53.57408 37181 ft 467 kts 243°
2026-05-05 06:18 51.04997 -53.62012 37376 ft 467 kts 243°
2026-05-05 06:18 51.03578 -53.66668 37553 ft 467 kts 242°
2026-05-05 06:18 51.00737 -53.75965 37681 ft 467 kts 242°
2026-05-05 06:19 50.97905 -53.85198 37702 ft 468 kts 242°
2026-05-05 06:19 50.95062 -53.94437 37630 ft 468 kts 242°
2026-05-05 06:20 50.92209 -54.03673 37658 ft 467 kts 242°
2026-05-05 06:20 50.89336 -54.12939 37649 ft 469 kts 242°
2026-05-05 06:21 50.86466 -54.22159 37623 ft 467 kts 242°
2026-05-05 06:21 50.83597 -54.31342 37623 ft 468 kts 242°
2026-05-05 06:22 50.80693 -54.40603 37622 ft 468 kts 242°
2026-05-05 06:22 50.77815 -54.49745 37622 ft 468 kts 242°
2026-05-05 06:23 50.74901 -54.58968 37621 ft 468 kts 242°
2026-05-05 06:23 50.72003 -54.68108 37623 ft 465 kts 242°
2026-05-05 06:24 50.69110 -54.77197 37624 ft 466 kts 242°
2026-05-05 06:24 50.66210 -54.86274 37622 ft 464 kts 242°
2026-05-05 06:25 50.63306 -54.95332 37622 ft 464 kts 242°
2026-05-05 06:25 50.60396 -55.04375 37621 ft 464 kts 242°
2026-05-05 06:26 50.57477 -55.13414 37621 ft 464 kts 242°
2026-05-05 06:26 50.54552 -55.22435 37621 ft 464 kts 242°
2026-05-05 06:27 50.50170 -55.35894 37620 ft 462 kts 242°
2026-05-05 06:28 50.47235 -55.44869 37619 ft 463 kts 242°
2026-05-05 06:28 50.44296 -55.53822 37619 ft 462 kts 242°
2026-05-05 06:29 50.41354 -55.62750 37619 ft 462 kts 242°
2026-05-05 06:29 50.38385 -55.71733 37621 ft 462 kts 242°
2026-05-05 06:30 50.35438 -55.80614 37620 ft 461 kts 241°
2026-05-05 06:30 50.32483 -55.89489 37621 ft 461 kts 241°
2026-05-05 06:31 50.29505 -55.98400 37620 ft 461 kts 241°
2026-05-05 06:31 50.26554 -56.07202 37620 ft 461 kts 241°
2026-05-05 06:32 50.23578 -56.16045 37619 ft 458 kts 242°
2026-05-05 06:32 50.20623 -56.24798 37619 ft 457 kts 241°
2026-05-05 06:33 50.17644 -56.33588 37619 ft 461 kts 242°
2026-05-05 06:33 50.14666 -56.42346 37618 ft 460 kts 242°
2026-05-05 06:34 50.11655 -56.51170 37618 ft 460 kts 242°
2026-05-05 06:34 50.08677 -56.59871 37617 ft 460 kts 242°
2026-05-05 06:35 50.05651 -56.68679 37620 ft 459 kts 241°
2026-05-05 06:35 50.02645 -56.77395 37621 ft 460 kts 241°
2026-05-05 06:36 49.99622 -56.86134 37716 ft 462 kts 241°
2026-05-05 06:36 49.96576 -56.94911 37724 ft 462 kts 241°
2026-05-05 06:37 49.93521 -57.03682 37724 ft 462 kts 241°
2026-05-05 06:37 49.90466 -57.12423 37723 ft 462 kts 241°
2026-05-05 06:38 49.87420 -57.21107 37726 ft 462 kts 241°
2026-05-05 06:38 49.84349 -57.29834 37727 ft 465 kts 241°
2026-05-05 06:39 49.81245 -57.38626 37725 ft 466 kts 241°
2026-05-05 06:39 49.78139 -57.47393 37725 ft 465 kts 241°
2026-05-05 06:40 49.75028 -57.56142 37725 ft 465 kts 241°
2026-05-05 06:40 49.71948 -57.64777 37720 ft 454 kts 242°
2026-05-05 06:41 49.68895 -57.73307 37729 ft 455 kts 241°
2026-05-05 06:41 49.65837 -57.81824 37728 ft 457 kts 241°
2026-05-05 06:42 49.62764 -57.90353 37727 ft 456 kts 241°
2026-05-05 06:42 49.59674 -57.98899 37726 ft 456 kts 241°
2026-05-05 06:43 49.56600 -58.07376 37726 ft 456 kts 241°
2026-05-05 06:43 49.53507 -58.15877 37725 ft 456 kts 241°
2026-05-05 06:44 49.50395 -58.24401 37725 ft 456 kts 241°
2026-05-05 06:44 49.47301 -58.32849 37724 ft 455 kts 241°
2026-05-05 06:45 49.44201 -58.41286 37724 ft 455 kts 241°
2026-05-05 06:45 49.41086 -58.49737 37723 ft 455 kts 241°
2026-05-05 06:46 49.37963 -58.58182 37722 ft 455 kts 241°
2026-05-05 06:46 49.34836 -58.66610 37724 ft 455 kts 240°
2026-05-05 06:47 49.31714 -58.74996 37727 ft 455 kts 240°
2026-05-05 06:47 49.28568 -58.83421 37726 ft 456 kts 240°
2026-05-05 06:48 49.25429 -58.91801 37725 ft 456 kts 240°
2026-05-05 06:48 49.22289 -59.00155 37724 ft 452 kts 240°
2026-05-05 06:49 49.19149 -59.08483 37725 ft 453 kts 240°
2026-05-05 06:49 49.16014 -59.16771 37724 ft 453 kts 240°
2026-05-05 06:50 49.12868 -59.25062 37723 ft 453 kts 240°
2026-05-05 06:50 49.09694 -59.33403 37723 ft 455 kts 241°
2026-05-05 06:51 49.06530 -59.41690 37723 ft 454 kts 241°
2026-05-05 06:51 49.03365 -59.49952 37722 ft 454 kts 241°
2026-05-05 06:52 49.00182 -59.58237 37722 ft 454 kts 241°
2026-05-05 06:52 48.96985 -59.66531 37723 ft 454 kts 240°
2026-05-05 06:53 48.93792 -59.74789 37726 ft 454 kts 240°
2026-05-05 06:53 48.90587 -59.83053 37726 ft 458 kts 240°
2026-05-05 06:54 48.87358 -59.91352 37727 ft 457 kts 240°
2026-05-05 06:54 48.84131 -59.99618 37726 ft 457 kts 240°
2026-05-05 06:55 48.80877 -60.07929 37726 ft 457 kts 240°
2026-05-05 06:55 48.77651 -60.16146 37725 ft 457 kts 240°
2026-05-05 06:56 48.74380 -60.24447 37727 ft 457 kts 240°
2026-05-05 06:56 48.71174 -60.32557 37813 ft 449 kts 240°
2026-05-05 06:57 48.67955 -60.40680 37843 ft 452 kts 240°
2026-05-05 06:57 48.64726 -60.48802 37842 ft 452 kts 240°
2026-05-05 06:58 48.61476 -60.56950 37842 ft 452 kts 240°
2026-05-05 06:58 48.58251 -60.65012 37841 ft 452 kts 240°
2026-05-05 06:59 48.55002 -60.73109 37847 ft 452 kts 240°
2026-05-05 06:59 48.51736 -60.81224 37846 ft 451 kts 240°
2026-05-05 07:00 48.48482 -60.89285 37846 ft 451 kts 240°
2026-05-05 07:00 48.45222 -60.97337 37845 ft 451 kts 240°
2026-05-05 07:01 48.41938 -61.05423 37845 ft 451 kts 240°
2026-05-05 07:01 48.38682 -61.13417 37844 ft 451 kts 240°
2026-05-05 07:02 48.35399 -61.21452 37844 ft 451 kts 240°
2026-05-05 07:02 48.32112 -61.29474 37843 ft 452 kts 240°
2026-05-05 07:03 48.28834 -61.37448 37843 ft 451 kts 240°
2026-05-05 07:03 48.25527 -61.45470 37842 ft 451 kts 240°
2026-05-05 07:04 48.22248 -61.53401 37839 ft 447 kts 240°
2026-05-05 07:04 48.18972 -61.61301 37841 ft 448 kts 240°
2026-05-05 07:05 48.15678 -61.69223 37847 ft 448 kts 239°
2026-05-05 07:05 48.12398 -61.77086 37849 ft 448 kts 239°
2026-05-05 07:06 48.09102 -61.84965 37908 ft 448 kts 239°
2026-05-05 07:06 48.05798 -61.92841 37908 ft 448 kts 239°
2026-05-05 07:07 48.02500 -62.00679 37908 ft 448 kts 239°
2026-05-05 07:07 47.99171 -62.08566 37907 ft 448 kts 239°
2026-05-05 07:08 47.95878 -62.16348 37907 ft 448 kts 239°
2026-05-05 07:08 47.92551 -62.24186 37906 ft 448 kts 239°
2026-05-05 07:09 47.89222 -62.32007 37906 ft 449 kts 240°
2026-05-05 07:09 47.85865 -62.39870 37906 ft 448 kts 240°
2026-05-05 07:10 47.82531 -62.47658 37905 ft 448 kts 240°
2026-05-05 07:10 47.79189 -62.55442 37905 ft 448 kts 240°
2026-05-05 07:11 47.75841 -62.63219 37923 ft 449 kts 240°
2026-05-05 07:11 47.72477 -62.71008 37928 ft 446 kts 239°
2026-05-05 07:12 47.69119 -62.78763 37929 ft 448 kts 239°
2026-05-05 07:12 47.65744 -62.86534 37928 ft 448 kts 239°
2026-05-05 07:13 47.62374 -62.94272 37927 ft 448 kts 239°
2026-05-05 07:13 47.59005 -63.01987 37927 ft 448 kts 239°
2026-05-05 07:14 47.55610 -63.09737 37955 ft 448 kts 239°
2026-05-05 07:14 47.52217 -63.17462 37965 ft 448 kts 239°
2026-05-05 07:15 47.48826 -63.25161 37964 ft 448 kts 239°
2026-05-05 07:15 47.45426 -63.32858 37964 ft 450 kts 239°
2026-05-05 07:16 47.42007 -63.40578 37963 ft 450 kts 239°
2026-05-05 07:16 47.38590 -63.48270 37963 ft 450 kts 239°
2026-05-05 07:17 47.35178 -63.55931 37962 ft 450 kts 239°
2026-05-05 07:17 47.31741 -63.63625 37962 ft 450 kts 239°
2026-05-05 07:18 47.28320 -63.71262 37968 ft 450 kts 238°
2026-05-05 07:18 47.24866 -63.78951 37968 ft 450 kts 238°
2026-05-05 07:19 47.21424 -63.86593 37967 ft 449 kts 238°
2026-05-05 07:19 47.17985 -63.94206 37967 ft 449 kts 238°
2026-05-05 07:20 47.14523 -64.01850 37966 ft 449 kts 238°
2026-05-05 07:20 47.11070 -64.09451 37966 ft 449 kts 238°
2026-05-05 07:21 47.07617 -64.17033 37965 ft 449 kts 238°
2026-05-05 07:21 47.04152 -64.24622 37965 ft 449 kts 238°
2026-05-05 07:22 47.00667 -64.32231 37965 ft 452 kts 239°
2026-05-05 07:22 46.97166 -64.39855 37964 ft 450 kts 239°
2026-05-05 07:23 46.93681 -64.47424 37964 ft 451 kts 239°
2026-05-05 07:23 46.90174 -64.55019 37964 ft 451 kts 239°
2026-05-05 07:24 46.86687 -64.62550 37962 ft 451 kts 239°
2026-05-05 07:24 46.83161 -64.70144 37968 ft 451 kts 238°
2026-05-05 07:25 46.79644 -64.77698 37967 ft 451 kts 238°
2026-05-05 07:25 46.76123 -64.85241 37966 ft 451 kts 238°
2026-05-05 07:26 46.72605 -64.92757 37995 ft 445 kts 239°
2026-05-05 07:26 46.69141 -65.00137 38001 ft 444 kts 239°
2026-05-05 07:27 46.65657 -65.07542 37999 ft 444 kts 239°
2026-05-05 07:27 46.62179 -65.14915 37998 ft 444 kts 239°
2026-05-05 07:28 46.58683 -65.22306 37998 ft 444 kts 239°
2026-05-05 07:28 46.55202 -65.29643 37998 ft 445 kts 238°
2026-05-05 07:29 46.51699 -65.37010 37997 ft 445 kts 238°
2026-05-05 07:29 46.48175 -65.44401 37996 ft 445 kts 238°
2026-05-05 07:30 46.44640 -65.51793 37996 ft 445 kts 238°
2026-05-05 07:30 46.39351 -65.62819 37995 ft 445 kts 238°
2026-05-05 07:31 46.35820 -65.70158 37982 ft 445 kts 238°
2026-05-05 07:31 46.32279 -65.77496 37985 ft 443 kts 238°
2026-05-05 07:32 46.28788 -65.84710 37981 ft 439 kts 238°
2026-05-05 07:32 46.25282 -65.91939 37980 ft 439 kts 238°
2026-05-05 07:33 46.21786 -65.99129 37979 ft 439 kts 238°
2026-05-05 07:33 46.18292 -66.06298 37979 ft 439 kts 238°
2026-05-05 07:34 46.14780 -66.13483 37992 ft 439 kts 238°
2026-05-05 07:34 46.11255 -66.20676 37991 ft 439 kts 238°
2026-05-05 07:35 46.07745 -66.27821 37992 ft 439 kts 238°
2026-05-05 07:35 46.04248 -66.34920 37990 ft 438 kts 238°
2026-05-05 07:36 46.00713 -66.42082 37990 ft 438 kts 238°
2026-05-05 07:36 45.97194 -66.49191 37990 ft 438 kts 238°
2026-05-05 07:37 45.93673 -66.56285 37989 ft 438 kts 238°
2026-05-05 07:37 45.90150 -66.63366 37989 ft 438 kts 238°
2026-05-05 07:38 45.86616 -66.70451 37995 ft 438 kts 238°
2026-05-05 07:38 45.83069 -66.77545 37994 ft 439 kts 238°
2026-05-05 07:39 45.79500 -66.84665 37993 ft 440 kts 238°
2026-05-05 07:39 45.75940 -66.91750 37993 ft 439 kts 238°
2026-05-05 07:40 45.72384 -66.98809 37993 ft 441 kts 238°
2026-05-05 07:40 45.68793 -67.05918 37992 ft 440 kts 238°
2026-05-05 07:41 45.65214 -67.12985 37991 ft 440 kts 238°
2026-05-05 07:41 45.61627 -67.20052 38005 ft 440 kts 238°
2026-05-05 07:42 45.58039 -67.27104 38007 ft 440 kts 238°
2026-05-05 07:42 45.54469 -67.34102 38004 ft 438 kts 238°
2026-05-05 07:43 45.50877 -67.41127 38004 ft 438 kts 238°
2026-05-05 07:43 45.47295 -67.48112 38003 ft 438 kts 238°
2026-05-05 07:44 45.43752 -67.55006 38003 ft 438 kts 238°
2026-05-05 07:44 45.40163 -67.61974 38002 ft 438 kts 238°
2026-05-05 07:45 45.36572 -67.68928 38011 ft 439 kts 238°
2026-05-05 07:45 45.32719 -67.75713 38012 ft 441 kts 233°
2026-05-05 07:46 45.28705 -67.82151 38010 ft 438 kts 233°
2026-05-05 07:46 45.24630 -67.88624 38010 ft 439 kts 232°
2026-05-05 07:47 45.20577 -67.95018 38009 ft 438 kts 232°
2026-05-05 07:47 45.16520 -68.01394 38008 ft 438 kts 232°
2026-05-05 07:48 45.12427 -68.07803 37998 ft 438 kts 232°
2026-05-05 07:48 45.08356 -68.14162 37993 ft 437 kts 232°
2026-05-05 07:49 45.04282 -68.20509 37992 ft 437 kts 232°
2026-05-05 07:49 45.00204 -68.26846 37993 ft 437 kts 232°
2026-05-05 07:50 44.96133 -68.33156 37991 ft 436 kts 232°
2026-05-05 07:50 44.92060 -68.39457 37991 ft 436 kts 232°
2026-05-05 07:51 44.87974 -68.45763 37987 ft 436 kts 232°
2026-05-05 07:51 44.83902 -68.52034 37987 ft 436 kts 232°
2026-05-05 07:52 44.79816 -68.58309 37986 ft 436 kts 232°
2026-05-05 07:52 44.75744 -68.64552 37986 ft 436 kts 232°
2026-05-05 07:53 44.71647 -68.70819 37996 ft 439 kts 232°
2026-05-05 07:53 44.67508 -68.77135 37996 ft 437 kts 232°
2026-05-05 07:54 44.63425 -68.83349 37995 ft 435 kts 232°
2026-05-05 07:54 44.59329 -68.89571 37993 ft 435 kts 232°
2026-05-05 07:55 44.55214 -68.95809 37993 ft 435 kts 232°
2026-05-05 07:55 44.51125 -69.01993 37993 ft 435 kts 232°
2026-05-05 07:56 44.46998 -69.08221 37992 ft 435 kts 232°
2026-05-05 07:56 44.42881 -69.14419 38007 ft 435 kts 232°
2026-05-05 07:57 44.38795 -69.20557 38012 ft 436 kts 232°
2026-05-05 07:57 44.34660 -69.26756 38008 ft 436 kts 232°
2026-05-05 07:58 44.30535 -69.32925 38011 ft 437 kts 232°
2026-05-05 07:58 44.26400 -69.39095 37997 ft 437 kts 232°
2026-05-05 07:59 44.22249 -69.45277 38011 ft 439 kts 232°
2026-05-05 07:59 44.18092 -69.51453 37996 ft 438 kts 232°
2026-05-05 08:00 44.13908 -69.57655 37998 ft 438 kts 232°
2026-05-05 08:00 44.09743 -69.63816 38016 ft 438 kts 232°
2026-05-05 08:01 44.05565 -69.69982 38032 ft 439 kts 231°
2026-05-05 08:01 44.01377 -69.76150 38032 ft 439 kts 232°
2026-05-05 08:02 43.97186 -69.82308 38032 ft 439 kts 232°
2026-05-05 08:02 43.93013 -69.88427 38031 ft 439 kts 232°
2026-05-05 08:03 43.88848 -69.94520 38028 ft 439 kts 232°
2026-05-05 08:03 43.84640 -70.00663 38026 ft 439 kts 232°
2026-05-05 08:04 43.80448 -70.06770 38012 ft 439 kts 232°
2026-05-05 08:04 43.76266 -70.12848 38011 ft 439 kts 232°
2026-05-05 08:05 43.72043 -70.18971 38010 ft 437 kts 231°
2026-05-05 08:05 43.67881 -70.24994 38011 ft 437 kts 231°
2026-05-05 08:06 43.63719 -70.31001 38008 ft 427 kts 232°
2026-05-05 08:06 43.59625 -70.36904 38009 ft 430 kts 232°
2026-05-05 08:07 43.55481 -70.42863 38009 ft 430 kts 232°
2026-05-05 08:07 43.51366 -70.48767 38015 ft 430 kts 232°
2026-05-05 08:08 43.47248 -70.54663 38014 ft 430 kts 232°
2026-05-05 08:08 43.43109 -70.60579 38014 ft 430 kts 232°
2026-05-05 08:09 43.38814 -70.66304 38020 ft 432 kts 228°
2026-05-05 08:09 43.34401 -70.71948 38024 ft 433 kts 228°
2026-05-05 08:10 43.30031 -70.77549 38018 ft 432 kts 228°
2026-05-05 08:10 43.25648 -70.83168 38016 ft 432 kts 228°
2026-05-05 08:11 43.21256 -70.88795 38016 ft 435 kts 228°
2026-05-05 08:11 43.16856 -70.94421 38015 ft 434 kts 228°
2026-05-05 08:12 43.12439 -71.00058 38015 ft 434 kts 228°
2026-05-05 08:12 43.08037 -71.05667 38014 ft 434 kts 228°
2026-05-05 08:13 43.03653 -71.11242 38014 ft 434 kts 228°
2026-05-05 08:13 42.99230 -71.16854 38013 ft 434 kts 228°
2026-05-05 08:14 42.94817 -71.22443 38013 ft 434 kts 228°
2026-05-05 08:14 42.90391 -71.28037 38013 ft 435 kts 228°
2026-05-05 08:15 42.85979 -71.33601 38009 ft 435 kts 228°
2026-05-05 08:15 42.81560 -71.39163 38016 ft 435 kts 228°
2026-05-05 08:16 42.77108 -71.44756 38015 ft 435 kts 228°
2026-05-05 08:16 42.72673 -71.50316 38016 ft 436 kts 228°
2026-05-05 08:17 42.68230 -71.55874 38014 ft 436 kts 228°
2026-05-05 08:17 42.63789 -71.61418 38016 ft 436 kts 228°
2026-05-05 08:18 42.59316 -71.66991 38030 ft 436 kts 227°
2026-05-05 08:18 42.54848 -71.72546 38030 ft 436 kts 227°
2026-05-05 08:19 42.50388 -71.78081 38030 ft 436 kts 227°
2026-05-05 08:19 42.45935 -71.83594 38030 ft 436 kts 227°
2026-05-05 08:20 42.41473 -71.89109 38042 ft 436 kts 227°
2026-05-05 08:20 42.37001 -71.94624 38043 ft 436 kts 227°
2026-05-05 08:21 42.32518 -72.00143 38042 ft 436 kts 227°
2026-05-05 08:21 42.28057 -72.05623 38042 ft 436 kts 227°
2026-05-05 08:22 42.23558 -72.11138 38041 ft 436 kts 227°
2026-05-05 08:22 42.19091 -72.16605 38037 ft 436 kts 227°
2026-05-05 08:23 42.14605 -72.22081 38005 ft 436 kts 227°
2026-05-05 08:23 42.10110 -72.27560 38005 ft 436 kts 227°
2026-05-05 08:24 42.05630 -72.33008 38004 ft 436 kts 227°
2026-05-05 08:24 42.01128 -72.38473 38004 ft 436 kts 227°
2026-05-05 08:25 41.96655 -72.43892 38004 ft 436 kts 227°
2026-05-05 08:25 41.92141 -72.49348 38030 ft 436 kts 227°
2026-05-05 08:26 41.87633 -72.54788 38028 ft 436 kts 227°
2026-05-05 08:26 41.83123 -72.60219 38032 ft 436 kts 227°
2026-05-05 08:27 41.78621 -72.65630 38036 ft 436 kts 227°
2026-05-05 08:27 41.74114 -72.71035 38041 ft 438 kts 227°
2026-05-05 08:28 41.69566 -72.76481 38046 ft 440 kts 227°
2026-05-05 08:28 41.65049 -72.81876 38044 ft 437 kts 227°
2026-05-05 08:29 41.60510 -72.87288 38049 ft 437 kts 227°
2026-05-05 08:30 41.53720 -72.95365 38049 ft 437 kts 227°
2026-05-05 08:30 41.49173 -73.00761 38048 ft 437 kts 227°
2026-05-05 08:31 41.44671 -73.06092 38048 ft 437 kts 227°
2026-05-05 08:31 41.40115 -73.11476 38048 ft 437 kts 227°
2026-05-05 08:32 41.35556 -73.16787 38128 ft 441 kts 226°
2026-05-05 08:32 41.33235 -73.19425 38438 ft 439 kts 226°
2026-05-05 08:32 41.30910 -73.22066 38776 ft 436 kts 226°
2026-05-05 08:32 41.28627 -73.24658 39012 ft 436 kts 226°
2026-05-05 08:33 41.26344 -73.27252 39130 ft 437 kts 226°
2026-05-05 08:33 41.21690 -73.32532 39382 ft 440 kts 225°
2026-05-05 08:33 41.19378 -73.35151 39584 ft 439 kts 225°
2026-05-05 08:34 41.17057 -73.37779 39772 ft 438 kts 225°
2026-05-05 08:34 41.14733 -73.40407 39928 ft 438 kts 225°
2026-05-05 08:34 41.12420 -73.43021 40064 ft 438 kts 225°
2026-05-05 08:35 41.07798 -73.48237 40101 ft 439 kts 225°
2026-05-05 08:35 41.03169 -73.53451 40101 ft 438 kts 225°
2026-05-05 08:36 40.98547 -73.58647 40101 ft 438 kts 225°
2026-05-05 08:36 40.93929 -73.63831 40100 ft 438 kts 225°
2026-05-05 08:37 40.89290 -73.69026 40109 ft 439 kts 225°
2026-05-05 08:37 40.84611 -73.74258 40108 ft 438 kts 225°
2026-05-05 08:38 40.79982 -73.79422 40100 ft 437 kts 224°
2026-05-05 08:38 40.75373 -73.84556 40100 ft 437 kts 224°
2026-05-05 08:39 40.70722 -73.89728 40100 ft 441 kts 224°
2026-05-05 08:39 40.66023 -73.94940 40099 ft 440 kts 224°
2026-05-05 08:40 40.61379 -74.00083 40119 ft 440 kts 224°
2026-05-05 08:40 40.56682 -74.05274 40119 ft 440 kts 224°
2026-05-05 08:41 40.52007 -74.10433 40105 ft 440 kts 224°
2026-05-05 08:41 40.47351 -74.15559 40104 ft 440 kts 224°
2026-05-05 08:42 40.42675 -74.20699 40104 ft 440 kts 224°
2026-05-05 08:42 40.37985 -74.25845 40103 ft 440 kts 224°
2026-05-05 08:43 40.33293 -74.30981 40110 ft 440 kts 224°
2026-05-05 08:43 40.28608 -74.36101 40124 ft 440 kts 224°
2026-05-05 08:44 40.23926 -74.41209 40122 ft 440 kts 224°
2026-05-05 08:44 40.19233 -74.46320 40122 ft 443 kts 224°
2026-05-05 08:45 40.14496 -74.51468 40116 ft 443 kts 224°
2026-05-05 08:45 40.09786 -74.56577 40115 ft 443 kts 224°
2026-05-05 08:46 40.05160 -74.61587 40115 ft 443 kts 224°
2026-05-05 08:46 40.00364 -74.66770 40123 ft 443 kts 223°
2026-05-05 08:47 39.95599 -74.71911 40123 ft 443 kts 223°
2026-05-05 08:47 39.90865 -74.77007 40123 ft 443 kts 223°
2026-05-05 08:48 39.86138 -74.82087 40121 ft 443 kts 223°
2026-05-05 08:48 39.81382 -74.87189 40120 ft 443 kts 223°
2026-05-05 08:49 39.76650 -74.92256 40120 ft 443 kts 223°
2026-05-05 08:49 39.71936 -74.97295 40118 ft 441 kts 223°
2026-05-05 08:50 39.67171 -75.02379 40119 ft 442 kts 223°
2026-05-05 08:50 39.62423 -75.07435 40131 ft 442 kts 223°
2026-05-05 08:51 39.57703 -75.12452 40133 ft 442 kts 223°
2026-05-05 08:51 39.52965 -75.17479 40132 ft 442 kts 223°
2026-05-05 08:52 39.48201 -75.22525 40132 ft 442 kts 223°
2026-05-05 08:52 39.43460 -75.27537 40132 ft 444 kts 223°
2026-05-05 08:53 39.38678 -75.32584 40131 ft 444 kts 223°
2026-05-05 08:53 39.33908 -75.37607 40125 ft 444 kts 223°
2026-05-05 08:54 39.29126 -75.42635 40124 ft 444 kts 223°
2026-05-05 08:54 39.24365 -75.47633 40124 ft 444 kts 223°
2026-05-05 08:55 39.19614 -75.52608 40122 ft 439 kts 223°
2026-05-05 08:55 39.14888 -75.57551 40122 ft 440 kts 223°
2026-05-05 08:56 39.10158 -75.62489 40114 ft 440 kts 223°
2026-05-05 08:56 39.05391 -75.67455 40129 ft 441 kts 222°
2026-05-05 08:57 39.00654 -75.72383 40122 ft 441 kts 222°
2026-05-05 08:57 38.95895 -75.77325 40128 ft 442 kts 222°
2026-05-05 08:58 38.91115 -75.82317 40142 ft 442 kts 223°
2026-05-05 08:58 38.86399 -75.87280 40142 ft 442 kts 223°
2026-05-05 08:59 38.81656 -75.92260 40141 ft 442 kts 223°
2026-05-05 08:59 38.76888 -75.97256 40141 ft 442 kts 223°
2026-05-05 09:00 38.72157 -76.02203 40140 ft 440 kts 223°
2026-05-05 09:00 38.67421 -76.07146 40140 ft 441 kts 221°
2026-05-05 09:01 38.62681 -76.12085 40151 ft 442 kts 221°
2026-05-05 09:01 38.57921 -76.17035 40154 ft 442 kts 221°
2026-05-05 09:02 38.53156 -76.21982 40153 ft 442 kts 221°
2026-05-05 09:02 38.48409 -76.26900 40153 ft 443 kts 221°
2026-05-05 09:03 38.43621 -76.31853 40152 ft 443 kts 221°
2026-05-05 09:03 38.38840 -76.36790 40152 ft 443 kts 221°
2026-05-05 09:04 38.34064 -76.41715 40152 ft 443 kts 221°
2026-05-05 09:04 38.29295 -76.46621 40154 ft 443 kts 221°
2026-05-05 09:05 38.24499 -76.51549 40158 ft 443 kts 221°
2026-05-05 09:05 38.19735 -76.56434 40157 ft 440 kts 221°
2026-05-05 09:06 38.15005 -76.61276 40156 ft 441 kts 221°
2026-05-05 09:06 38.10199 -76.66144 40158 ft 442 kts 218°
2026-05-05 09:07 38.05031 -76.70387 40164 ft 444 kts 215°
2026-05-05 09:07 37.99857 -76.74526 40183 ft 444 kts 215°
2026-05-05 09:08 37.94620 -76.78712 40186 ft 448 kts 215°
2026-05-05 09:08 37.89371 -76.82900 40184 ft 449 kts 215°
2026-05-05 09:09 37.84098 -76.87099 40184 ft 449 kts 215°
2026-05-05 09:09 37.78806 -76.91307 40183 ft 449 kts 215°
2026-05-05 09:10 37.73547 -76.95483 40183 ft 449 kts 216°
2026-05-05 09:10 37.68277 -76.99658 40183 ft 449 kts 216°
2026-05-05 09:11 37.62995 -77.03838 40182 ft 449 kts 216°
2026-05-05 09:11 37.57734 -77.07993 40182 ft 449 kts 216°
2026-05-05 09:12 37.52426 -77.12178 40182 ft 449 kts 216°
2026-05-05 09:12 37.47171 -77.16315 40181 ft 449 kts 216°
2026-05-05 09:13 37.41870 -77.20481 40181 ft 449 kts 216°
2026-05-05 09:13 37.36581 -77.24630 40181 ft 449 kts 216°
2026-05-05 09:14 37.31320 -77.28751 40187 ft 451 kts 216°
2026-05-05 09:14 37.26012 -77.32901 40187 ft 451 kts 216°
2026-05-05 09:15 37.20680 -77.37064 40194 ft 451 kts 216°
2026-05-05 09:15 37.15379 -77.41194 40193 ft 451 kts 216°
2026-05-05 09:16 37.10078 -77.45319 40193 ft 451 kts 216°
2026-05-05 09:16 37.04767 -77.49443 40193 ft 451 kts 216°
2026-05-05 09:17 36.99452 -77.53565 40192 ft 451 kts 216°
2026-05-05 09:17 36.94134 -77.57680 40192 ft 451 kts 216°
2026-05-05 09:18 36.88813 -77.61793 40205 ft 451 kts 216°
2026-05-05 09:18 36.83503 -77.65890 40211 ft 451 kts 215°
2026-05-05 09:19 36.78189 -77.69982 40213 ft 451 kts 215°
2026-05-05 09:19 36.72855 -77.74084 40214 ft 450 kts 215°
2026-05-05 09:20 36.67540 -77.78164 40212 ft 449 kts 216°
2026-05-05 09:20 36.62237 -77.82229 40212 ft 449 kts 216°
2026-05-05 09:21 36.56948 -77.86276 40216 ft 449 kts 216°
2026-05-05 09:21 36.51635 -77.90335 40246 ft 450 kts 216°
2026-05-05 09:22 36.46320 -77.94389 40246 ft 449 kts 216°
2026-05-05 09:22 36.41007 -77.98434 40246 ft 449 kts 216°
2026-05-05 09:23 36.35706 -78.02464 40245 ft 449 kts 216°
2026-05-05 09:23 36.30393 -78.06496 40225 ft 449 kts 216°
2026-05-05 09:24 36.25092 -78.10514 40231 ft 449 kts 216°
2026-05-05 09:24 36.19753 -78.14553 40230 ft 448 kts 216°
2026-05-05 09:25 36.14474 -78.18600 40230 ft 448 kts 217°
2026-05-05 09:25 36.09232 -78.22762 40230 ft 448 kts 217°
2026-05-05 09:26 36.04007 -78.26898 40230 ft 449 kts 217°
2026-05-05 09:26 35.98747 -78.31050 40229 ft 449 kts 217°
2026-05-05 09:27 35.93509 -78.35176 40229 ft 449 kts 217°
2026-05-05 09:27 35.88269 -78.39295 40227 ft 449 kts 217°
2026-05-05 09:28 35.83012 -78.43420 40227 ft 449 kts 217°
2026-05-05 09:28 35.77732 -78.47557 40220 ft 449 kts 217°
2026-05-05 09:29 35.72490 -78.51656 40225 ft 450 kts 217°
2026-05-05 09:29 35.67213 -78.55777 40225 ft 450 kts 217°
2026-05-05 09:30 35.61926 -78.59900 40225 ft 450 kts 217°
2026-05-05 09:30 35.56647 -78.64008 40225 ft 450 kts 217°
2026-05-05 09:31 35.51348 -78.68127 40248 ft 451 kts 217°
2026-05-05 09:31 35.46074 -78.72219 40248 ft 450 kts 217°
2026-05-05 09:32 35.40798 -78.76306 40245 ft 451 kts 217°
2026-05-05 09:32 35.35499 -78.80406 40248 ft 454 kts 217°
2026-05-05 09:33 35.30177 -78.84515 40248 ft 454 kts 217°
2026-05-05 09:33 35.24822 -78.88644 40247 ft 454 kts 217°
2026-05-05 09:34 35.19498 -78.92742 40221 ft 455 kts 217°
2026-05-05 09:34 35.14171 -78.96837 40225 ft 455 kts 217°
2026-05-05 09:35 35.08823 -79.00940 40226 ft 455 kts 217°
2026-05-05 09:35 35.00824 -79.07067 40232 ft 455 kts 217°
2026-05-05 09:36 34.95468 -79.11161 40233 ft 455 kts 217°
2026-05-05 09:36 34.90120 -79.15243 40232 ft 455 kts 217°
2026-05-05 09:37 34.84765 -79.19324 40235 ft 455 kts 217°
2026-05-05 09:37 34.79425 -79.23386 40234 ft 455 kts 217°
2026-05-05 09:38 34.74104 -79.27428 40234 ft 457 kts 218°
2026-05-05 09:38 34.68690 -79.31537 40235 ft 460 kts 218°
2026-05-05 09:39 34.63295 -79.35622 40234 ft 460 kts 218°
2026-05-05 09:39 34.57883 -79.39713 40233 ft 460 kts 218°
2026-05-05 09:40 34.52478 -79.43793 40233 ft 460 kts 218°
2026-05-05 09:40 34.47055 -79.47882 40233 ft 460 kts 218°
2026-05-05 09:41 34.41640 -79.51957 40246 ft 460 kts 218°
2026-05-05 09:41 34.36216 -79.56033 40245 ft 460 kts 218°
2026-05-05 09:42 34.30792 -79.60103 40233 ft 460 kts 218°
2026-05-05 09:42 34.25400 -79.64142 40233 ft 460 kts 218°
2026-05-05 09:43 34.19764 -79.67929 40244 ft 466 kts 213°
2026-05-05 09:43 34.14012 -79.71510 40244 ft 466 kts 213°
2026-05-05 09:44 34.08280 -79.75073 40244 ft 466 kts 213°
2026-05-05 09:44 34.02540 -79.78636 40245 ft 469 kts 213°
2026-05-05 09:45 33.96734 -79.82236 40244 ft 468 kts 213°
2026-05-05 09:45 33.90997 -79.85788 40252 ft 468 kts 213°
2026-05-05 09:46 33.85231 -79.89352 40251 ft 468 kts 213°
2026-05-05 09:46 33.79444 -79.92924 40251 ft 468 kts 213°
2026-05-05 09:47 33.73658 -79.96491 40249 ft 469 kts 214°
2026-05-05 09:47 33.67887 -80.00043 40251 ft 470 kts 214°
2026-05-05 09:48 33.62077 -80.03612 40251 ft 470 kts 214°
2026-05-05 09:48 33.56276 -80.07172 40244 ft 470 kts 214°
2026-05-05 09:49 33.50471 -80.10728 40244 ft 470 kts 214°
2026-05-05 09:49 33.44679 -80.14271 40244 ft 470 kts 214°
2026-05-05 09:50 33.38869 -80.17819 40244 ft 470 kts 214°
2026-05-05 09:50 33.33077 -80.21352 40244 ft 470 kts 214°
2026-05-05 09:51 33.27268 -80.24889 40244 ft 470 kts 214°
2026-05-05 09:51 33.21445 -80.28429 40238 ft 471 kts 216°
2026-05-05 09:52 33.15611 -80.31972 40238 ft 474 kts 216°
2026-05-05 09:52 33.09740 -80.35530 40238 ft 472 kts 216°
2026-05-05 09:53 33.03930 -80.39047 40238 ft 472 kts 216°
2026-05-05 09:53 32.98068 -80.42590 40238 ft 472 kts 216°
2026-05-05 09:54 32.92258 -80.46095 40242 ft 472 kts 216°
2026-05-05 09:54 32.86391 -80.49631 40241 ft 472 kts 216°
2026-05-05 09:55 32.80564 -80.53137 40240 ft 472 kts 216°
2026-05-05 09:55 32.74723 -80.56647 40241 ft 472 kts 216°
2026-05-05 09:56 32.68898 -80.60140 40241 ft 471 kts 216°
2026-05-05 09:56 32.63077 -80.63628 40236 ft 472 kts 216°
2026-05-05 09:57 32.57223 -80.67130 40242 ft 472 kts 215°
2026-05-05 09:57 32.51370 -80.70625 40242 ft 472 kts 215°
2026-05-05 09:58 32.45505 -80.74123 40243 ft 472 kts 215°
2026-05-05 09:58 32.39611 -80.77632 40242 ft 470 kts 215°
2026-05-05 09:59 32.33739 -80.81124 40244 ft 470 kts 215°
2026-05-05 09:59 32.27870 -80.84609 40250 ft 470 kts 215°
2026-05-05 10:00 32.22039 -80.88065 40249 ft 468 kts 215°
2026-05-05 10:00 32.16208 -80.91518 40250 ft 468 kts 215°
2026-05-05 10:01 32.10388 -80.94898 40250 ft 469 kts 214°
2026-05-05 10:01 32.04555 -80.98256 40217 ft 469 kts 214°
2026-05-05 10:02 31.98715 -81.01616 40216 ft 469 kts 214°
2026-05-05 10:02 31.92882 -81.04967 40216 ft 469 kts 214°
2026-05-05 10:03 31.87012 -81.08337 40206 ft 469 kts 214°
2026-05-05 10:03 31.81194 -81.11673 40205 ft 469 kts 214°
2026-05-05 10:04 31.75341 -81.15024 40206 ft 469 kts 214°
2026-05-05 10:04 31.69476 -81.18378 40206 ft 472 kts 215°
2026-05-05 10:05 31.63563 -81.21754 40207 ft 472 kts 215°
2026-05-05 10:05 31.57683 -81.25106 40226 ft 472 kts 215°
2026-05-05 10:06 31.51791 -81.28461 40226 ft 474 kts 216°
2026-05-05 10:06 31.45912 -81.31802 40226 ft 473 kts 216°
2026-05-05 10:07 31.40004 -81.35156 40226 ft 473 kts 216°
2026-05-05 10:07 31.34079 -81.38515 40227 ft 473 kts 216°
2026-05-05 10:08 31.28183 -81.41853 40227 ft 473 kts 216°
2026-05-05 10:08 31.22256 -81.45203 40216 ft 473 kts 217°
2026-05-05 10:09 31.16383 -81.48518 40227 ft 472 kts 217°
2026-05-05 10:09 31.10483 -81.51846 40214 ft 472 kts 217°
2026-05-05 10:10 31.04584 -81.55167 40213 ft 472 kts 217°
2026-05-05 10:10 30.98714 -81.58467 40214 ft 472 kts 217°
2026-05-05 10:11 30.92806 -81.61784 40220 ft 472 kts 217°
2026-05-05 10:11 30.86906 -81.65092 40213 ft 472 kts 217°
2026-05-05 10:12 30.81015 -81.68391 40233 ft 473 kts 217°
2026-05-05 10:12 30.75101 -81.71697 40233 ft 473 kts 217°
2026-05-05 10:13 30.69229 -81.74970 40219 ft 463 kts 218°
2026-05-05 10:13 30.63456 -81.78191 40221 ft 464 kts 218°
2026-05-05 10:14 30.57643 -81.81430 40221 ft 464 kts 218°
2026-05-05 10:14 30.51844 -81.84656 40221 ft 464 kts 218°
2026-05-05 10:15 30.46031 -81.87884 40234 ft 464 kts 218°
2026-05-05 10:15 30.40233 -81.91101 40235 ft 464 kts 218°
2026-05-05 10:16 30.34458 -81.94300 40235 ft 464 kts 218°
2026-05-05 10:16 30.28645 -81.97516 40235 ft 464 kts 218°
2026-05-05 10:17 30.22808 -82.00739 40236 ft 462 kts 218°
2026-05-05 10:17 30.17062 -82.03909 40236 ft 461 kts 218°
2026-05-05 10:18 30.11308 -82.07081 40235 ft 461 kts 218°
2026-05-05 10:18 30.05525 -82.10263 40236 ft 461 kts 218°
2026-05-05 10:19 29.99761 -82.13432 40222 ft 461 kts 218°
2026-05-05 10:19 29.93954 -82.16618 40222 ft 461 kts 218°
2026-05-05 10:20 29.88204 -82.19771 40209 ft 461 kts 218°
2026-05-05 10:20 29.82405 -82.22945 40219 ft 461 kts 218°
2026-05-05 10:21 29.76633 -82.26102 40222 ft 463 kts 218°
2026-05-05 10:21 29.70805 -82.29288 40230 ft 468 kts 218°
2026-05-05 10:22 29.64973 -82.32467 40228 ft 467 kts 218°
2026-05-05 10:22 29.59112 -82.35658 40229 ft 467 kts 218°
2026-05-05 10:23 29.53540 -82.39218 40227 ft 457 kts 224°
2026-05-05 10:23 29.48126 -82.42996 40181 ft 457 kts 224°
2026-05-05 10:24 29.42700 -82.46740 40180 ft 457 kts 223°
2026-05-05 10:24 29.37249 -82.50473 40180 ft 458 kts 223°
2026-05-05 10:25 29.31784 -82.54199 40180 ft 458 kts 223°
2026-05-05 10:25 29.26343 -82.57897 40180 ft 457 kts 223°
2026-05-05 10:26 29.20880 -82.61605 40181 ft 459 kts 223°
2026-05-05 10:26 29.15395 -82.65318 40183 ft 458 kts 222°
2026-05-05 10:27 29.09908 -82.69030 40229 ft 460 kts 222°
2026-05-05 10:27 29.04447 -82.72717 40231 ft 459 kts 222°
2026-05-05 10:28 28.98965 -82.76414 40229 ft 461 kts 223°
2026-05-05 10:28 28.93433 -82.80144 40232 ft 465 kts 222°
2026-05-05 10:29 28.87877 -82.83879 40215 ft 464 kts 223°
2026-05-05 10:29 28.82333 -82.87603 40215 ft 464 kts 223°
2026-05-05 10:30 28.76779 -82.91329 40215 ft 464 kts 223°
2026-05-05 10:30 28.71229 -82.95050 40216 ft 466 kts 223°
2026-05-05 10:31 28.65643 -82.98788 40215 ft 466 kts 223°
2026-05-05 10:31 28.60080 -83.02506 40215 ft 466 kts 223°
2026-05-05 10:32 28.54478 -83.06246 40215 ft 466 kts 223°
2026-05-05 10:32 28.48923 -83.09950 40208 ft 466 kts 223°
2026-05-05 10:33 28.43347 -83.13664 40205 ft 466 kts 223°
2026-05-05 10:33 28.37787 -83.17363 40195 ft 466 kts 223°
2026-05-05 10:34 28.32202 -83.21074 40195 ft 466 kts 223°
2026-05-05 10:34 28.26663 -83.24749 40195 ft 466 kts 223°
2026-05-05 10:35 28.21077 -83.28451 40194 ft 465 kts 224°
2026-05-05 10:35 28.15493 -83.32148 40196 ft 467 kts 224°
2026-05-05 10:36 28.09895 -83.35849 40196 ft 467 kts 224°
2026-05-05 10:36 28.04414 -83.39681 40193 ft 453 kts 231°
2026-05-05 10:37 28.02096 -83.41943 40194 ft 440 kts 238°
2026-05-05 10:37 28.00101 -83.44466 40193 ft 426 kts 245°
2026-05-05 10:37 27.98430 -83.47215 40193 ft 414 kts 252°
2026-05-05 10:37 27.97136 -83.50034 40193 ft 404 kts 258°
2026-05-05 10:38 27.95024 -83.55881 40195 ft 401 kts 259°
2026-05-05 10:38 27.92923 -83.61698 40194 ft 401 kts 259°
2026-05-05 10:39 27.90789 -83.67539 40216 ft 402 kts 259°
2026-05-05 10:39 27.88655 -83.73344 40196 ft 402 kts 259°
2026-05-05 10:40 27.86515 -83.79143 40194 ft 402 kts 259°
2026-05-05 10:40 27.84364 -83.84959 40193 ft 402 kts 259°
2026-05-05 10:41 27.82206 -83.90780 40192 ft 402 kts 259°
2026-05-05 10:41 27.80060 -83.96561 40193 ft 402 kts 259°
2026-05-05 10:42 27.76816 -84.05281 40197 ft 402 kts 259°
2026-05-05 10:43 27.74649 -84.11095 40196 ft 402 kts 259°
2026-05-05 10:43 27.72471 -84.16933 40195 ft 405 kts 258°
2026-05-05 10:44 27.70289 -84.22765 40194 ft 404 kts 258°
2026-05-05 10:44 27.68100 -84.28612 40195 ft 407 kts 258°
2026-05-05 10:45 27.65900 -84.34484 40194 ft 412 kts 258°
2026-05-05 10:45 27.63649 -84.40472 40192 ft 411 kts 258°
2026-05-05 10:46 27.61432 -84.46363 40191 ft 411 kts 258°
2026-05-05 10:46 27.59204 -84.52276 40191 ft 411 kts 258°
2026-05-05 10:47 27.56971 -84.58192 40190 ft 411 kts 258°
2026-05-05 10:47 27.54736 -84.64107 40189 ft 411 kts 258°
2026-05-05 10:48 27.52497 -84.70019 40208 ft 413 kts 257°
2026-05-05 10:48 27.51131 -84.72934 40207 ft 426 kts 249°
2026-05-05 10:48 27.49341 -84.75625 40206 ft 440 kts 240°
2026-05-05 10:48 27.47085 -84.78068 40207 ft 457 kts 231°
2026-05-05 10:49 27.44434 -84.80103 40206 ft 475 kts 220°
2026-05-05 10:49 27.41376 -84.81686 40213 ft 489 kts 212°
2026-05-05 10:49 27.38203 -84.83004 40210 ft 492 kts 211°
2026-05-05 10:50 27.31787 -84.85613 40210 ft 491 kts 211°
2026-05-05 10:50 27.25372 -84.88232 40211 ft 491 kts 211°
2026-05-05 10:51 27.18941 -84.90868 40212 ft 495 kts 211°
2026-05-05 10:51 27.12505 -84.93504 40212 ft 494 kts 211°
2026-05-05 10:52 27.06164 -84.96101 40213 ft 494 kts 211°
2026-05-05 10:52 26.99560 -84.98804 40200 ft 494 kts 211°
2026-05-05 10:53 26.93108 -85.01443 40200 ft 494 kts 211°
2026-05-05 10:53 26.86683 -85.04068 40182 ft 494 kts 211°
2026-05-05 10:54 26.80241 -85.06697 40182 ft 494 kts 211°
2026-05-05 10:54 26.73822 -85.09313 40185 ft 494 kts 211°
2026-05-05 10:55 26.67413 -85.11922 40185 ft 492 kts 211°
2026-05-05 10:55 26.60978 -85.14540 40185 ft 492 kts 211°
2026-05-05 10:56 26.54589 -85.17135 40185 ft 492 kts 211°
2026-05-05 10:56 26.48169 -85.19740 40186 ft 492 kts 211°
2026-05-05 10:57 26.41743 -85.22344 40187 ft 492 kts 211°
2026-05-05 10:57 26.38480 -85.23455 40183 ft 503 kts 202°
2026-05-05 10:57 26.35012 -85.24079 40189 ft 513 kts 195°
2026-05-05 10:58 26.27914 -85.24838 40189 ft 515 kts 194°
2026-05-05 10:58 26.20821 -85.25567 40186 ft 507 kts 194°
2026-05-05 10:59 26.13835 -85.26287 40192 ft 506 kts 194°
2026-05-05 10:59 26.06822 -85.27013 40191 ft 506 kts 194°
2026-05-05 11:00 25.99871 -85.27731 40192 ft 506 kts 194°
2026-05-05 11:00 25.92870 -85.28455 40193 ft 506 kts 194°
2026-05-05 11:01 25.85910 -85.29173 40180 ft 506 kts 194°
2026-05-05 11:01 25.78923 -85.29894 40180 ft 506 kts 194°
2026-05-05 11:02 25.71903 -85.30617 40182 ft 507 kts 193°
2026-05-05 11:02 25.64922 -85.31335 40182 ft 507 kts 193°
2026-05-05 11:03 25.57896 -85.32056 40183 ft 507 kts 193°
2026-05-05 11:03 25.50892 -85.32775 40184 ft 507 kts 193°
2026-05-05 11:04 25.43903 -85.33491 40185 ft 507 kts 193°
2026-05-05 11:04 25.36937 -85.34390 40184 ft 499 kts 201°
2026-05-05 11:05 25.30506 -85.36871 40186 ft 479 kts 217°
2026-05-05 11:05 25.24930 -85.40319 40187 ft 475 kts 219°
2026-05-05 11:06 25.19206 -85.43932 40187 ft 475 kts 219°
2026-05-05 11:06 25.13393 -85.47502 40183 ft 481 kts 213°
2026-05-05 11:07 25.06826 -85.49689 40184 ft 502 kts 195°
2026-05-05 11:07 24.99758 -85.50002 40176 ft 512 kts 187°
2026-05-05 11:08 24.92877 -85.49994 40179 ft 511 kts 187°
2026-05-05 11:08 24.85760 -85.49988 40173 ft 511 kts 187°
2026-05-05 11:09 24.78609 -85.49985 40173 ft 512 kts 187°
2026-05-05 11:09 24.71727 -85.49985 40176 ft 513 kts 186°
2026-05-05 11:10 24.64626 -85.49985 40175 ft 512 kts 186°
2026-05-05 11:10 24.57458 -85.49986 40177 ft 512 kts 186°
2026-05-05 11:11 24.50298 -85.49988 40178 ft 512 kts 186°
2026-05-05 11:11 24.43432 -85.49989 40179 ft 512 kts 186°
2026-05-05 11:12 24.36541 -85.49991 40180 ft 512 kts 186°
2026-05-05 11:12 24.29408 -85.49992 40181 ft 512 kts 186°
2026-05-05 11:13 24.22498 -85.49995 40182 ft 513 kts 186°
2026-05-05 11:13 24.15400 -85.49998 40184 ft 516 kts 186°
2026-05-05 11:14 24.08217 -85.49998 40184 ft 514 kts 186°
2026-05-05 11:14 24.01093 -85.49999 40185 ft 511 kts 186°
2026-05-05 11:15 23.94033 -85.50217 40187 ft 507 kts 189°
2026-05-05 11:15 23.86989 -85.50590 40173 ft 508 kts 189°
2026-05-05 11:16 23.79977 -85.50947 40174 ft 508 kts 189°
2026-05-05 11:16 23.72924 -85.51297 40175 ft 507 kts 189°
2026-05-05 11:17 23.65901 -85.51641 40176 ft 506 kts 189°
2026-05-05 11:17 23.58897 -85.51982 40141 ft 506 kts 189°
2026-05-05 11:18 23.51908 -85.52320 40140 ft 506 kts 189°
2026-05-05 11:18 23.44863 -85.52660 40141 ft 506 kts 189°
2026-05-05 11:19 23.37849 -85.52997 40142 ft 506 kts 189°
2026-05-05 11:19 23.30793 -85.53336 40143 ft 506 kts 189°
2026-05-05 11:20 23.23774 -85.53672 40145 ft 506 kts 188°
2026-05-05 11:20 23.16791 -85.54005 40145 ft 502 kts 188°
2026-05-05 11:21 23.09776 -85.54342 40146 ft 503 kts 188°
2026-05-05 11:21 23.02766 -85.54677 40147 ft 503 kts 188°
2026-05-05 11:22 22.95843 -85.55007 40148 ft 503 kts 188°
2026-05-05 11:22 22.88868 -85.55340 40144 ft 503 kts 188°
2026-05-05 11:23 22.81883 -85.55673 40137 ft 503 kts 188°
2026-05-05 11:23 22.74938 -85.56007 40137 ft 503 kts 188°
2026-05-05 11:24 22.67990 -85.56339 40031 ft 490 kts 187°
2026-05-05 11:24 22.64860 -85.56488 39334 ft 491 kts 187°
2026-05-05 11:24 22.61421 -85.56656 38264 ft 498 kts 187°
2026-05-05 11:24 22.57925 -85.56826 37275 ft 503 kts 187°
2026-05-05 11:25 22.54443 -85.56993 36391 ft 506 kts 187°
2026-05-05 11:25 22.50949 -85.57161 35509 ft 507 kts 187°
2026-05-05 11:25 22.47420 -85.57331 34587 ft 510 kts 187°
2026-05-05 11:25 22.43868 -85.57502 33651 ft 512 kts 187°
2026-05-05 11:26 22.40344 -85.57671 32717 ft 514 kts 187°
2026-05-05 11:26 22.36784 -85.57842 31751 ft 516 kts 186°
2026-05-05 11:26 22.33227 -85.58174 30791 ft 513 kts 193°
2026-05-05 11:26 22.29802 -85.59060 30187 ft 500 kts 203°
2026-05-05 11:27 22.26652 -85.60439 29690 ft 485 kts 212°
2026-05-05 11:27 22.23795 -85.62256 29147 ft 472 kts 220°
2026-05-05 11:27 22.21286 -85.64429 28595 ft 460 kts 229°
2026-05-05 11:27 22.19107 -85.66912 28029 ft 450 kts 234°
2026-05-05 11:28 22.17099 -85.69483 27471 ft 451 kts 235°
2026-05-05 11:28 22.15200 -85.71957 26931 ft 459 kts 235°
2026-05-05 11:28 22.13191 -85.74638 26327 ft 456 kts 236°
2026-05-05 11:28 22.11237 -85.77292 25742 ft 453 kts 236°
2026-05-05 11:29 22.09298 -85.79958 25153 ft 449 kts 236°
2026-05-05 11:29 22.07365 -85.82639 24550 ft 444 kts 236°
2026-05-05 11:29 22.05475 -85.85279 23960 ft 440 kts 236°
2026-05-05 11:29 22.03621 -85.87878 23366 ft 435 kts 236°
2026-05-05 11:30 22.01760 -85.90500 22763 ft 431 kts 236°
2026-05-05 11:30 21.99951 -85.93052 22226 ft 425 kts 236°
2026-05-05 11:30 21.98169 -85.95567 22100 ft 407 kts 237°
2026-05-05 11:30 21.96404 -85.97908 21993 ft 393 kts 230°
2026-05-05 11:31 21.94427 -85.99901 21796 ft 389 kts 226°
2026-05-05 11:31 21.92348 -86.01878 21508 ft 394 kts 225°
2026-05-05 11:31 21.90288 -86.03825 21222 ft 391 kts 225°
2026-05-05 11:31 21.88208 -86.05788 20941 ft 389 kts 225°
2026-05-05 11:32 21.86166 -86.07714 20672 ft 389 kts 225°
2026-05-05 11:32 21.84125 -86.09637 20406 ft 388 kts 225°
2026-05-05 11:32 21.82081 -86.11562 20140 ft 386 kts 225°
2026-05-05 11:32 21.80054 -86.13470 19877 ft 385 kts 225°
2026-05-05 11:33 21.78030 -86.15373 19614 ft 383 kts 225°
2026-05-05 11:33 21.76025 -86.17258 19354 ft 381 kts 225°
2026-05-05 11:33 21.74029 -86.19134 19094 ft 378 kts 225°
2026-05-05 11:33 21.72063 -86.20978 18835 ft 366 kts 225°
2026-05-05 11:34 21.70170 -86.22755 18599 ft 356 kts 225°
2026-05-05 11:34 21.68311 -86.24498 18367 ft 346 kts 225°
2026-05-05 11:34 21.66516 -86.26183 18138 ft 337 kts 225°
2026-05-05 11:34 21.64767 -86.27825 17899 ft 335 kts 225°
2026-05-05 11:35 21.63005 -86.29481 17435 ft 338 kts 225°
2026-05-05 11:35 21.61224 -86.31154 16946 ft 337 kts 225°
2026-05-05 11:35 21.59470 -86.32800 16497 ft 335 kts 225°
2026-05-05 11:35 21.57728 -86.34432 16062 ft 333 kts 225°
2026-05-05 11:36 21.57009 -86.35107 15884 ft 332 kts 225°
2026-05-05 11:36 21.55279 -86.36727 15455 ft 329 kts 225°
2026-05-05 11:36 21.53557 -86.38340 15026 ft 326 kts 224°
2026-05-05 11:36 21.51758 -86.39794 14636 ft 324 kts 218°
2026-05-05 11:37 21.49910 -86.41122 14387 ft 316 kts 217°
2026-05-05 11:37 21.48095 -86.42412 14144 ft 315 kts 217°
2026-05-05 11:37 21.46259 -86.43722 13877 ft 314 kts 217°
2026-05-05 11:37 21.44465 -86.45003 13609 ft 312 kts 217°
2026-05-05 11:38 21.42662 -86.46292 13341 ft 310 kts 217°
2026-05-05 11:38 21.40875 -86.47570 13075 ft 309 kts 217°
2026-05-05 11:38 21.39081 -86.48852 12808 ft 307 kts 217°
2026-05-05 11:38 21.37316 -86.50113 12546 ft 305 kts 217°
2026-05-05 11:39 21.35568 -86.51363 12285 ft 303 kts 217°
2026-05-05 11:39 21.33817 -86.52615 12023 ft 302 kts 217°
2026-05-05 11:39 21.32086 -86.53853 11760 ft 300 kts 217°
2026-05-05 11:39 21.30345 -86.55097 11494 ft 297 kts 216°
2026-05-05 11:40 21.28634 -86.56321 11232 ft 295 kts 216°
2026-05-05 11:40 21.26952 -86.57523 10974 ft 294 kts 216°
2026-05-05 11:40 21.25252 -86.58736 10715 ft 287 kts 216°
2026-05-05 11:40 21.23616 -86.59905 10475 ft 281 kts 216°
2026-05-05 11:41 21.22008 -86.61053 10244 ft 278 kts 215°
2026-05-05 11:41 21.20409 -86.62194 10010 ft 277 kts 215°
2026-05-05 11:41 21.18820 -86.63329 9771 ft 270 kts 215°
2026-05-05 11:41 21.17271 -86.64432 9547 ft 264 kts 215°
2026-05-05 11:42 21.15748 -86.65519 9326 ft 259 kts 214°
2026-05-05 11:42 21.14274 -86.66570 9113 ft 254 kts 214°
2026-05-05 11:42 21.12817 -86.67609 8900 ft 250 kts 214°
2026-05-05 11:42 21.11376 -86.68636 8690 ft 247 kts 214°
2026-05-05 11:43 21.09949 -86.69653 8479 ft 247 kts 214°
2026-05-05 11:43 21.08561 -86.70719 8258 ft 245 kts 225°
2026-05-05 11:43 21.07687 -86.72243 8033 ft 245 kts 253°
2026-05-05 11:43 21.07625 -86.74038 7879 ft 249 kts 281°
2026-05-05 11:44 21.08291 -86.75785 7510 ft 254 kts 297°
2026-05-05 11:44 21.09219 -86.77393 7174 ft 255 kts 301°
2026-05-05 11:44 21.10208 -86.78979 6865 ft 255 kts 302°
2026-05-05 11:44 21.11192 -86.80547 6569 ft 254 kts 302°
2026-05-05 11:45 21.12165 -86.82100 6275 ft 254 kts 302°
2026-05-05 11:45 21.13158 -86.83685 5976 ft 253 kts 302°
2026-05-05 11:45 21.14135 -86.85248 5680 ft 253 kts 302°
2026-05-05 11:45 21.15111 -86.86809 5385 ft 253 kts 302°
2026-05-05 11:46 21.16079 -86.88357 5092 ft 252 kts 302°
2026-05-05 11:46 21.17056 -86.89921 4809 ft 252 kts 303°
2026-05-05 11:46 21.18024 -86.91473 4568 ft 250 kts 303°
2026-05-05 11:46 21.18977 -86.92999 4327 ft 248 kts 303°
2026-05-05 11:47 21.19933 -86.94531 4082 ft 246 kts 303°
2026-05-05 11:47 21.20879 -86.96047 3837 ft 245 kts 303°
2026-05-05 11:47 21.21826 -86.97567 3592 ft 244 kts 303°
2026-05-05 11:47 21.22771 -86.99082 3348 ft 242 kts 303°
2026-05-05 11:48 21.24627 -87.02062 3003 ft 234 kts 303°
2026-05-05 11:48 21.25518 -87.03490 2994 ft 224 kts 303°
2026-05-05 11:48 21.26369 -87.04854 2993 ft 216 kts 303°
2026-05-05 11:49 21.27007 -87.06386 2997 ft 243 kts 276°
2026-05-05 11:49 21.26720 -87.08141 2952 ft 235 kts 241°
2026-05-05 11:49 21.25640 -87.09431 2707 ft 232 kts 210°
2026-05-05 11:49 21.24129 -87.09914 2431 ft 229 kts 178°
2026-05-05 11:50 21.22574 -87.09585 2167 ft 228 kts 162°
2026-05-05 11:50 21.21074 -87.09072 2012 ft 225 kts 161°
2026-05-05 11:50 21.20933 -87.09024 2009 ft 225 kts 161°
2026-05-05 11:50 21.19530 -87.08536 1998 ft 227 kts 161°
2026-05-05 11:51 21.18028 -87.08015 1996 ft 227 kts 161°
2026-05-05 11:51 21.16539 -87.07420 1987 ft 225 kts 149°
2026-05-05 11:51 21.15408 -87.06333 1979 ft 213 kts 129°
2026-05-05 11:51 21.14538 -87.05093 1979 ft 203 kts 124°
2026-05-05 11:52 21.13757 -87.03851 1979 ft 194 kts 123°
2026-05-05 11:52 21.13029 -87.02683 1997 ft 184 kts 123°
2026-05-05 11:52 21.12311 -87.01536 1985 ft 183 kts 123°
2026-05-05 11:52 21.11596 -87.00391 1983 ft 184 kts 123°
2026-05-05 11:53 21.10882 -86.99248 1983 ft 184 kts 123°
2026-05-05 11:53 21.10171 -86.98109 1983 ft 184 kts 123°
2026-05-05 11:53 21.09453 -86.96960 1785 ft 186 kts 123°
2026-05-05 11:53 21.08758 -86.95850 1540 ft 173 kts 123°
2026-05-05 11:54 21.08133 -86.94852 1328 ft 160 kts 123°
2026-05-05 11:54 21.07541 -86.93908 1124 ft 148 kts 123°
2026-05-05 11:54 21.06966 -86.92990 925 ft 146 kts 122°
2026-05-05 11:54 21.06407 -86.92089 722 ft 145 kts 122°
2026-05-05 11:55 21.05837 -86.91194 526 ft 145 kts 123°
2026-05-05 11:55 21.05281 -86.90298 329 ft 144 kts 123°
2026-05-05 11:55 21.04732 -86.89417 146 ft 143 kts 123°
2026-05-05 11:55 21.04178 -86.88536 46 ft 134 kts 122°
2026-05-05 11:56 21.03712 -86.87789 35 ft 101 kts 124°
2026-05-05 11:56 21.03405 -86.87294 35 ft 56 kts 124°
2026-05-05 11:56 21.03202 -86.86968 35 ft 50 kts 123°
2026-05-05 11:56 21.03045 -86.86708 35 ft 31 kts 107°
2026-05-05 11:57 21.03170 -86.86610 35 ft 28 kts 317°
2026-05-05 11:57 21.03282 -86.86787 35 ft 29 kts 304°
2026-05-05 11:57 21.03396 -86.86966 35 ft 29 kts 304°
2026-05-05 11:57 21.03513 -86.87153 35 ft 30 kts 304°
2026-05-05 11:58 21.03628 -86.87338 35 ft 30 kts 303°
2026-05-05 11:58 21.03747 -86.87525 35 ft 30 kts 304°
2026-05-05 11:58 21.03864 -86.87715 35 ft 30 kts 303°
2026-05-05 11:58 21.03980 -86.87900 35 ft 29 kts 304°
2026-05-05 11:59 21.04094 -86.88083 35 ft 29 kts 304°
2026-05-05 11:59 21.04211 -86.88267 35 ft 30 kts 304°
2026-05-05 11:59 21.04327 -86.88456 35 ft 30 kts 303°
2026-05-05 11:59 21.04408 -86.88585 35 ft 11 kts 303°
2026-05-05 12:00 21.04468 -86.88627 35 ft 11 kts 28°
2026-05-05 12:00 21.04544 -86.88573 35 ft 14 kts 33°
2026-05-05 12:00 21.04632 -86.88511 35 ft 15 kts 33°
2026-05-05 12:00 21.04727 -86.88444 35 ft 17 kts 33°
2026-05-05 12:01 21.04797 -86.88393 35 ft 10 kts 34°
2026-05-05 12:01 21.04808 -86.88335 35 ft 10 kts 127°
2026-05-05 12:01 21.04781 -86.88308 35 ft 3 kts 138°
2026-05-05 12:01 21.04773 -86.88300 35 ft 1 kts 139°
2026-05-05 12:02 21.04771 -86.88299 35 ft 0 kts 139°